GFSFLT1_sfc_thetae_000.txt.gz
Theta_e
356 356 358 357 358 357 359 359 357 358 356 354 353 355 354 353 351 351 351 351 354 355 352 349 349 347 346 346 345 343 341 339 336
354 356 353 355 356 356 356 355 356 355 358 354 353 355 353 348 345 345 346 352 355 352 349 346 344 343 342 343 338 339 339 338 337
356 352 350 351 352 353 354 355 353 354 355 355 352 351 350 347 342 346 347 352 353 350 347 343 342 340 340 339 337 337 337 336 334
349 354 349 349 350 350 352 352 352 353 351 354 352 349 347 344 344 343 346 352 353 349 345 343 340 339 336 334 336 336 336 337 334
341 348 347 350 350 349 352 350 349 352 352 354 352 349 344 342 339 338 344 348 349 349 344 340 339 338 336 336 335 336 336 335 337
325 337 345 346 350 347 351 350 349 350 351 352 351 349 338 340 340 345 346 349 349 348 345 341 338 336 337 337 337 336 337 336 338
326 329 338 340 342 342 342 348 349 347 345 345 350 343 343 342 342 343 347 349 349 348 347 343 340 336 336 338 337 336 335 334 334
313 315 316 321 329 323 326 326 330 334 339 342 342 343 342 342 344 344 349 350 348 346 348 345 341 339 338 338 338 338 336 337 334
308 310 311 313 315 314 316 318 320 321 337 339 340 340 340 340 341 345 348 348 346 345 345 347 342 340 339 339 338 338 337 335 336
308 308 308 309 310 311 310 311 313 315 318 331 338 339 341 340 341 340 346 347 347 345 346 348 343 341 339 339 339 339 336 335 336
307 307 307 307 308 309 309 310 311 312 316 318 331 337 337 339 340 339 340 346 346 345 345 348 344 341 340 339 341 339 335 335 336
305 306 306 306 307 308 308 309 311 312 315 316 319 330 335 336 338 340 339 339 343 344 346 348 346 343 340 339 341 339 336 336 335
305 306 306 306 307 307 307 307 308 309 310 312 316 321 331 333 336 338 340 337 336 341 344 346 347 344 342 340 341 339 338 335 336
304 305 305 305 305 305 306 305 305 305 307 308 309 311 318 332 335 334 335 338 337 334 340 343 344 347 343 342 342 340 337 336 335
304 305 304 305 304 303 303 302 304 305 307 309 310 311 314 318 329 332 334 335 337 335 333 336 338 344 345 343 342 340 339 337 335
303 303 303 303 302 302 302 302 302 302 304 305 306 308 311 311 317 328 332 333 335 335 333 332 332 337 343 342 343 342 340 338 336
302 300 301 301 301 301 301 301 300 301 303 300 300 298 302 308 311 319 327 330 333 333 333 332 330 329 336 336 340 340 340 339 337
301 300 299 299 299 299 299 299 299 298 300 301 300 296 295 301 305 309 311 324 328 331 331 331 330 330 333 335 336 335 339 340 338
300 300 299 299 298 297 298 300 298 297 297 299 303 301 301 297 297 306 309 312 324 327 330 331 331 331 332 333 333 334 336 339 340
300 299 298 298 298 298 298 298 298 299 298 298 298 298 299 301 300 298 303 308 315 325 327 330 329 332 330 330 331 334 335 336 338

GFSFLT1_sfc_thetae_003.txt.gz
Theta_e
355 351 354 357 358 358 358 359 356 357 355 354 354 355 354 355 349 348 351 349 356 355 354 353 351 349 349 347 346 346 343 342 338
352 349 351 351 352 352 354 356 355 355 356 354 354 355 352 345 342 344 346 349 357 355 353 350 348 346 345 343 343 341 339 338 338
351 353 351 349 350 350 350 350 353 354 354 356 354 355 348 343 342 345 347 354 356 355 352 348 344 343 342 341 339 341 338 337 336
344 346 350 353 352 350 349 346 348 351 353 353 353 350 346 339 340 344 344 354 355 354 350 347 344 342 341 336 339 339 338 337 336
333 336 342 345 347 347 351 348 349 350 351 352 353 350 346 340 339 337 343 348 351 353 349 347 344 341 339 338 339 339 339 337 338
318 328 334 335 340 339 343 344 348 348 349 350 352 350 338 334 335 337 344 349 351 353 349 346 343 342 340 340 340 340 339 338 340
317 320 325 328 330 330 329 330 331 338 336 339 346 344 338 336 339 341 345 347 351 351 350 346 343 340 341 342 341 340 340 339 339
308 308 310 312 320 315 315 314 314 316 324 335 336 340 341 339 340 342 345 348 349 351 351 348 344 340 341 342 341 340 340 337 336
305 306 307 308 310 308 309 309 311 311 313 319 332 335 337 339 342 344 348 349 349 351 350 350 346 342 341 341 341 341 339 337 337
305 305 306 306 307 307 307 307 309 310 312 314 319 327 336 339 342 344 347 349 350 350 348 349 349 344 341 341 342 342 340 338 338
304 305 305 305 305 306 306 306 307 308 310 312 314 318 328 336 339 340 340 346 348 349 348 350 349 345 342 343 343 342 341 339 337
303 304 304 304 305 306 306 306 306 306 308 306 309 310 317 325 333 337 339 341 343 346 347 348 349 347 343 342 343 344 343 338 338
302 303 303 304 304 305 304 303 303 303 303 304 306 307 309 312 319 332 336 339 340 342 344 346 348 348 344 343 345 343 343 339 337
301 303 302 303 303 302 302 302 302 302 303 304 306 307 309 312 316 321 330 335 337 338 340 343 344 347 346 344 343 344 341 340 338
300 301 302 302 301 301 301 300 301 301 302 306 304 304 306 305 308 313 317 323 333 336 336 337 339 344 346 346 343 343 342 340 341
299 300 301 301 300 299 300 300 299 299 301 300 300 300 301 302 303 310 308 312 324 332 335 334 336 338 343 344 345 344 344 339 338
300 298 299 299 298 298 297 298 297 298 299 297 297 294 296 299 303 303 304 308 313 316 330 333 333 333 336 338 340 341 345 341 339
298 298 297 297 297 296 296 296 296 295 296 297 297 292 290 296 300 300 301 305 310 314 317 330 332 332 332 338 336 337 341 343 341
298 298 297 296 296 296 296 299 296 295 294 296 299 298 298 293 291 297 299 303 308 309 313 315 329 331 330 334 335 336 338 339 342
298 297 296 296 296 296 296 296 296 296 294 294 295 296 296 296 295 292 295 299 304 308 309 310 310 328 330 331 335 336 337 337 339

GFSFLT1_sfc_thetae_006.txt.gz
Theta_e
346 345 346 346 349 352 355 356 356 354 353 354 353 352 354 352 345 345 347 348 356 357 355 355 353 352 350 347 346 348 345 344 341
348 346 346 347 346 345 346 351 354 355 354 353 354 353 352 343 341 343 345 348 358 356 355 354 351 350 348 345 346 344 343 340 339
340 343 347 346 347 348 344 345 348 351 354 354 353 354 348 342 341 343 345 350 356 356 355 352 349 347 345 343 342 342 342 341 338
335 336 339 339 339 341 345 345 347 345 350 352 352 353 347 337 339 342 343 352 354 356 354 350 347 345 344 341 339 342 341 339 337
329 331 333 335 334 336 336 338 347 344 344 349 352 351 348 340 338 337 339 349 352 353 354 349 346 344 342 338 340 341 341 339 338
313 324 328 330 329 329 330 330 329 328 329 343 348 351 344 339 334 334 338 344 351 350 351 349 346 344 341 338 340 340 340 339 337
313 317 323 324 324 324 324 324 323 319 315 325 333 339 339 336 335 338 343 345 348 350 349 349 346 344 342 340 339 340 340 337 340
305 305 307 308 316 309 311 310 310 309 312 314 317 328 336 337 337 341 344 345 349 351 349 349 346 344 342 341 341 340 340 338 341
303 303 304 305 305 305 305 306 307 308 310 310 312 315 322 331 339 342 345 348 349 351 350 350 348 344 341 343 342 341 339 340 339
302 303 303 303 303 304 304 304 305 305 306 307 308 310 312 319 326 335 344 348 348 348 351 351 349 347 343 344 343 342 340 338 338
302 302 303 302 302 304 303 302 303 302 304 304 305 305 307 311 315 321 328 337 344 346 347 350 350 349 346 344 345 345 343 341 338
301 302 301 301 302 303 303 302 302 302 304 302 304 306 305 308 311 315 321 329 337 341 343 346 348 348 348 344 346 346 343 341 339
300 301 301 301 302 302 301 301 300 300 300 299 301 302 305 306 304 307 311 315 319 328 338 342 346 347 347 346 346 345 345 342 340
299 300 300 301 300 300 300 300 300 298 299 301 300 301 303 302 303 304 308 310 311 316 327 336 341 344 345 346 345 346 345 344 341
298 298 299 300 299 298 299 297 299 298 298 302 302 300 300 299 299 299 304 304 305 309 312 316 332 341 342 346 346 346 344 344 342
297 297 298 299 298 297 298 297 297 296 297 296 295 296 296 295 297 301 302 301 302 307 313 315 319 333 341 342 345 346 344 344 342
297 297 296 297 296 296 295 295 294 296 296 293 292 289 292 294 297 298 299 298 302 303 306 313 315 314 333 334 339 340 346 345 343
297 296 296 295 295 294 294 294 293 292 294 295 293 288 287 293 294 296 296 297 299 301 306 313 313 312 310 333 335 336 340 345 345
296 296 295 294 294 294 294 297 294 293 292 293 297 295 294 291 290 295 296 298 298 299 300 304 311 311 310 313 334 336 337 339 343
296 295 295 294 294 294 294 294 294 293 292 292 292 293 294 293 292 290 294 298 299 299 299 301 308 311 311 312 314 336 336 337 339

GFSFLT1_sfc_thetae_012.txt.gz
Theta_e
344 344 343 344 344 346 349 352 355 356 354 353 354 353 355 348 342 344 347 349 352 355 355 353 353 353 351 349 348 346 345 344 340
342 341 343 343 343 344 346 345 348 352 354 355 352 354 351 341 340 342 344 347 352 352 353 351 352 351 349 346 343 343 346 341 338
339 339 338 340 339 344 345 341 339 346 350 352 354 352 347 340 339 340 341 346 352 352 351 350 351 350 349 345 344 344 344 340 335
335 336 336 335 335 336 337 335 334 338 339 344 349 351 348 338 339 341 340 345 349 351 349 349 349 349 347 344 343 341 342 340 334
330 331 331 331 330 331 331 330 329 330 333 335 336 339 344 340 338 337 339 346 349 349 350 349 348 348 347 344 341 341 341 341 335
314 325 326 326 326 326 326 325 324 321 322 325 325 325 325 335 338 338 344 347 349 349 347 349 348 348 347 345 341 340 342 341 336
312 317 320 322 320 320 320 319 318 312 307 308 315 312 316 321 324 328 336 342 348 349 349 348 348 348 348 346 342 341 341 341 337
302 302 302 303 311 304 305 304 304 303 303 304 305 307 309 311 315 322 328 334 341 345 348 347 348 348 349 347 344 342 342 340 339
300 300 300 301 301 300 300 300 301 301 302 300 301 302 304 306 309 314 322 327 331 334 338 340 344 346 348 349 347 343 342 341 341
300 299 299 299 300 299 299 299 298 299 299 300 300 300 301 302 305 307 318 320 321 324 326 330 333 337 341 347 347 347 346 342 342
300 299 299 298 299 299 298 298 297 297 297 298 299 299 299 299 300 303 307 313 314 316 319 323 327 331 334 337 342 347 347 346 345
299 298 298 298 299 299 298 297 297 296 298 296 296 298 298 298 298 301 304 303 308 310 314 317 319 323 327 332 336 341 347 347 346
298 298 298 299 299 298 298 297 297 295 295 295 295 295 296 297 295 298 301 301 302 303 311 313 314 317 322 327 331 335 340 347 346
298 297 297 299 298 297 298 295 296 294 294 297 296 294 294 295 297 294 297 300 300 300 307 310 310 314 318 324 327 328 332 341 346
296 296 297 297 297 295 295 294 295 295 294 298 296 293 293 295 294 294 297 299 299 299 303 300 303 311 313 316 318 322 326 330 336
295 295 296 297 296 294 295 294 294 293 294 292 292 292 292 292 293 293 295 298 298 297 300 300 302 302 309 311 314 318 322 324 329
295 294 295 295 294 293 293 293 292 292 293 291 289 286 289 290 292 294 295 295 295 297 299 299 301 300 302 304 310 311 317 321 324
295 294 294 294 293 293 292 292 292 290 291 292 290 286 284 288 290 291 292 293 294 295 297 299 300 300 300 303 304 309 314 319 321
295 294 294 293 293 292 292 294 292 291 289 290 294 292 290 287 286 290 292 292 294 295 296 297 298 299 300 303 306 309 313 317 317
294 294 293 292 292 292 292 291 291 291 290 289 289 289 290 289 288 287 289 293 293 295 295 296 297 299 300 300 303 309 311 315 316

GFSFLT1_sfc_thetae_015.txt.gz
Theta_e
344 345 345 345 346 348 348 351 354 356 355 354 354 355 353 349 352 353 353 354 353 353 350 350 351 352 350 349 348 346 344 342 340
341 341 341 342 347 347 343 344 350 352 353 355 353 354 350 350 350 351 352 353 353 352 349 347 349 350 349 346 342 343 345 342 339
340 339 338 339 340 341 338 338 342 344 347 351 354 351 347 347 348 348 347 349 351 353 349 348 349 348 349 345 344 343 344 341 336
336 336 335 335 335 336 335 334 336 338 339 342 348 350 347 348 346 345 347 348 351 351 351 348 348 348 348 347 345 342 342 342 338
332 331 331 331 331 331 330 329 328 331 332 332 333 335 338 344 344 343 344 348 350 350 348 350 348 348 349 346 343 342 342 342 337
326 327 327 327 327 326 325 324 321 319 323 325 325 325 324 332 335 335 339 346 349 349 350 348 349 347 349 348 345 341 341 342 338
319 322 322 321 321 321 320 318 316 314 313 313 316 316 317 321 327 327 332 338 344 346 347 349 349 348 349 349 346 341 341 342 340
310 311 311 311 312 310 310 309 310 311 311 311 310 310 311 314 317 322 328 331 335 337 338 339 341 344 347 349 348 344 343 342 341
309 309 310 309 309 308 308 307 308 307 308 309 307 307 308 309 311 317 319 323 325 328 331 333 335 337 340 343 348 347 344 343 342
309 308 309 308 308 307 307 306 306 306 305 305 305 305 306 307 309 311 314 316 318 321 324 326 328 330 333 335 339 344 347 345 343
309 308 308 308 308 307 307 305 305 305 304 304 304 305 305 306 305 306 309 311 313 315 318 320 322 324 327 330 333 337 342 346 347
308 308 307 308 308 307 306 306 305 304 304 304 304 304 305 305 303 306 307 307 308 310 314 316 317 319 322 325 329 331 334 338 345
308 307 307 308 308 308 306 306 304 304 303 303 304 304 306 305 303 304 306 307 306 306 311 312 313 315 317 319 323 325 327 332 335
308 307 307 308 307 307 305 305 305 303 303 302 304 303 305 305 304 303 304 306 307 306 307 309 309 313 315 316 317 318 321 326 329
307 306 307 307 306 306 305 304 304 304 303 301 301 302 304 306 304 303 303 304 306 306 307 307 307 309 311 313 315 317 319 319 322
306 305 305 306 305 305 304 304 303 303 303 301 300 301 302 303 304 304 303 303 304 304 306 306 306 306 308 309 312 316 316 317 319
304 304 305 305 304 304 303 304 302 303 303 298 298 295 299 301 301 302 302 302 303 303 304 304 305 306 306 307 309 310 314 317 318
304 303 304 304 304 303 303 303 302 300 302 300 299 295 293 296 300 300 301 301 301 302 303 304 304 305 305 306 307 307 311 315 318
303 303 303 303 303 302 302 302 302 301 299 300 300 301 299 294 293 299 300 301 300 301 302 303 304 305 305 306 307 308 310 312 315
303 302 302 302 302 302 302 302 301 301 300 299 299 299 299 299 296 292 296 299 301 301 301 302 303 304 305 305 307 308 310 312 313

GFSFLT1_sfc_thetae_018.txt.gz
Theta_e
345 345 346 347 349 346 348 353 355 355 356 354 355 356 351 352 355 355 353 355 353 352 350 350 350 349 349 348 348 346 343 342 339
341 342 341 345 344 341 344 347 349 350 353 355 356 353 350 351 352 353 353 353 353 353 349 347 347 348 348 347 344 343 345 341 339
340 338 338 339 340 339 338 341 344 345 348 354 354 350 350 351 350 350 351 350 351 353 352 348 347 348 348 347 344 343 345 341 338
337 336 335 336 336 335 334 335 337 339 341 344 348 348 348 348 347 346 346 348 350 351 350 350 348 348 347 348 345 343 343 342 338
332 332 332 332 332 331 330 329 331 333 333 334 336 337 342 347 345 344 342 349 350 349 350 348 349 348 348 349 345 343 341 342 341
328 328 328 328 327 327 325 323 322 321 325 326 327 333 336 341 340 338 339 346 347 348 350 350 349 348 349 350 347 344 340 342 341
324 324 323 322 322 321 319 317 316 317 320 322 323 325 328 333 333 333 335 338 341 341 342 343 344 346 349 350 349 345 341 342 342
317 317 316 315 312 314 313 313 314 314 316 316 316 318 320 324 326 323 326 328 331 335 336 338 338 341 343 345 349 348 343 343 342
314 314 314 314 314 312 313 312 311 311 311 311 310 312 314 317 319 318 319 321 324 327 329 330 331 333 335 338 341 345 347 345 343
313 313 313 313 313 312 311 311 311 309 308 308 309 309 309 311 313 315 314 316 318 322 324 325 326 327 329 332 335 338 341 346 345
313 312 312 312 313 313 312 311 311 310 309 308 307 309 309 310 309 312 313 311 313 317 319 320 320 322 324 327 331 334 335 340 343
313 312 312 312 312 310 311 310 311 310 310 308 309 309 310 310 308 310 311 311 308 311 314 316 317 318 320 321 323 325 328 332 337
313 312 311 312 312 311 310 310 310 310 310 309 310 310 309 308 308 309 309 310 309 308 310 312 314 315 317 318 319 319 321 324 329
313 312 312 312 311 310 309 309 310 309 309 307 308 308 308 308 306 307 308 309 310 309 308 309 308 312 315 316 316 317 319 320 322
312 312 311 311 310 309 309 308 309 309 308 305 305 307 308 308 307 307 307 307 308 309 309 310 309 308 310 313 315 317 318 318 318
312 311 310 311 309 309 309 308 306 307 308 305 306 306 306 305 307 307 306 306 307 308 307 308 308 308 310 310 311 316 317 317 318
310 310 310 310 309 309 308 308 306 307 307 303 303 303 303 306 305 306 306 305 306 306 306 307 307 308 309 310 309 309 313 317 318
309 309 309 309 309 308 308 308 307 304 306 304 302 300 300 300 305 304 305 305 305 306 306 306 307 307 308 309 310 309 311 314 316
309 308 308 308 308 307 307 307 306 305 302 304 303 304 301 298 297 304 303 304 303 305 306 305 306 307 307 309 309 309 310 312 314
309 308 307 307 308 307 307 305 305 305 303 303 303 302 302 301 298 296 300 302 304 304 305 305 306 306 307 307 309 309 310 312 313

GFSFLT1_sfc_thetae_024.txt.gz
Theta_e
343 346 345 344 346 348 349 351 352 356 355 357 354 354 355 354 350 349 351 350 354 352 352 354 351 350 350 350 348 346 344 342 340
341 341 342 341 341 344 346 347 349 355 356 354 353 353 355 347 347 347 346 347 354 354 351 349 349 349 348 349 346 345 344 342 339
339 338 339 338 338 338 340 343 346 348 354 353 351 351 354 347 344 344 346 349 350 351 352 350 348 348 347 347 345 344 345 341 338
337 337 336 336 335 335 336 338 340 343 346 348 347 348 350 343 341 341 344 351 350 351 350 350 350 348 347 347 345 344 345 341 337
335 334 333 332 332 331 330 331 333 336 337 337 336 339 344 340 337 336 339 347 348 351 351 350 351 350 348 348 348 345 342 344 341
326 331 330 329 328 326 325 323 321 327 330 329 328 336 332 334 330 329 338 341 346 346 348 348 348 349 351 350 349 345 342 340 343
325 326 327 325 322 320 318 316 318 321 317 316 325 320 325 327 323 324 331 335 339 339 340 342 342 344 345 346 349 348 345 340 343
317 315 314 311 317 312 314 310 309 308 310 309 310 312 313 319 318 322 325 328 332 334 334 334 336 338 340 343 346 347 347 342 343
313 312 311 309 309 306 306 306 307 306 304 301 302 304 305 310 313 316 321 323 326 329 329 330 331 333 336 338 340 341 345 347 346
309 308 308 308 307 305 305 304 304 302 302 302 301 301 301 302 311 309 317 317 320 322 323 324 326 327 328 331 333 333 335 339 343
309 308 308 307 306 306 305 303 303 302 301 302 302 301 301 302 303 308 309 315 315 316 318 319 320 322 323 323 325 325 327 330 335
309 308 307 307 306 305 303 301 302 302 303 300 301 302 301 302 301 305 307 309 314 314 313 314 315 317 319 319 319 320 321 324 326
309 308 308 308 306 305 304 303 302 301 301 300 301 301 302 301 300 303 304 305 306 311 310 310 311 312 315 316 318 318 319 320 321
310 309 308 307 306 305 305 304 303 302 302 302 300 301 301 301 303 301 303 304 304 304 310 309 311 311 311 313 315 316 318 320 320
309 309 308 307 307 305 304 302 302 302 301 303 301 299 300 301 301 299 303 303 304 304 304 303 305 313 310 311 313 314 316 317 318
309 309 308 307 306 305 304 302 301 300 300 298 299 300 299 299 300 301 300 301 302 302 303 303 303 303 310 311 311 312 314 315 317
309 308 307 306 306 305 304 302 300 301 301 296 296 293 297 297 298 300 299 298 300 300 301 300 300 301 302 305 312 312 311 313 315
310 308 307 306 306 304 303 303 302 298 299 298 296 292 291 294 297 296 298 297 298 298 299 300 301 300 300 306 308 315 310 312 313
310 308 307 306 305 304 304 305 302 301 298 297 300 295 294 291 290 296 296 297 297 296 298 298 299 299 300 306 313 313 313 311 312
309 308 307 306 306 304 304 302 302 301 299 298 296 295 295 294 292 290 293 296 296 297 297 297 298 299 300 301 306 312 314 311 312

GFSFLT1_sfc_thetae_027.txt.gz
Theta_e
346 345 343 346 347 348 350 350 354 355 357 355 355 356 355 353 348 346 348 348 353 352 352 351 350 350 350 349 347 346 345 342 340
342 342 341 341 343 345 345 347 351 356 355 353 353 354 353 346 345 344 345 346 353 353 350 349 349 349 349 348 346 346 344 341 340
340 340 339 338 339 340 342 344 347 353 354 352 352 354 351 344 342 344 346 349 350 350 351 349 348 348 348 347 346 346 344 342 338
338 338 337 336 336 337 337 339 343 347 346 347 347 348 349 338 340 341 345 350 352 350 349 350 349 348 347 347 346 345 344 341 338
337 335 335 334 333 333 333 334 335 338 339 338 338 339 343 334 333 334 339 347 347 348 350 350 350 350 348 348 348 345 343 344 340
328 331 332 331 330 329 327 326 326 328 330 331 331 336 331 328 327 329 340 340 345 347 348 348 347 348 349 350 349 346 343 341 343
325 328 329 327 325 323 322 320 319 320 316 313 320 315 325 323 322 326 335 336 339 340 340 342 342 343 345 346 349 347 345 341 343
318 316 316 311 319 310 312 308 306 305 307 307 308 309 316 316 318 325 331 333 335 335 334 335 337 339 341 343 345 348 347 342 343
312 311 309 306 307 307 304 303 304 303 301 299 300 301 308 311 313 320 326 327 329 330 330 331 332 333 338 340 338 340 343 346 346
311 308 308 306 304 302 302 302 301 299 299 299 299 298 302 308 309 309 320 321 322 323 324 326 327 328 328 331 331 332 333 338 341
306 305 305 304 303 302 302 301 300 299 299 300 300 299 299 304 306 307 309 317 316 317 318 319 321 323 323 323 324 324 326 328 329
306 304 304 303 303 302 301 299 299 299 300 298 298 300 299 299 304 306 307 310 316 314 314 314 316 317 318 319 319 319 320 321 323
306 305 304 304 303 301 300 299 298 298 298 297 297 298 299 299 299 303 305 305 307 312 312 311 311 312 313 315 316 317 319 320 320
306 305 305 305 303 301 302 300 299 298 298 299 298 297 298 299 300 299 302 302 303 305 311 311 310 312 310 312 313 315 317 318 319
307 306 305 304 302 301 301 300 299 299 299 303 299 295 297 298 298 298 301 302 303 302 302 301 303 312 313 310 311 312 314 315 317
307 306 305 304 303 302 301 299 298 298 297 296 296 297 297 296 297 298 298 299 301 301 302 301 301 302 310 310 311 312 313 312 315
307 307 305 303 302 301 301 299 298 298 297 294 293 291 295 294 296 297 298 296 299 299 301 299 300 299 300 303 313 312 310 311 313
309 307 306 304 304 303 301 299 298 297 297 296 294 290 290 292 294 294 296 295 296 296 297 298 298 298 298 305 307 314 311 312 313
310 308 307 306 305 302 303 302 299 297 296 295 297 294 293 289 289 293 294 295 296 295 296 297 297 297 297 304 308 312 312 311 311
309 308 307 306 305 305 303 301 300 299 297 295 294 292 292 290 290 288 291 294 294 295 295 295 295 296 297 299 303 313 315 312 312

GFSFLT1_sfc_thetae_030.txt.gz
Theta_e
345 345 348 347 348 348 349 352 354 356 355 355 357 357 355 351 346 344 348 347 352 352 351 350 350 350 350 348 346 345 343 341 339
344 342 343 345 346 346 346 348 351 356 354 354 354 354 351 343 342 343 342 345 352 352 350 349 349 349 350 347 346 345 343 341 338
341 340 339 340 342 343 344 347 352 354 353 352 353 352 350 342 340 342 342 347 349 350 350 349 348 348 348 347 346 345 344 340 337
340 339 338 338 338 339 341 345 347 348 348 348 349 349 345 335 335 339 342 351 351 350 349 350 348 348 347 347 346 346 344 340 338
338 337 336 336 336 337 336 338 343 344 343 341 340 343 339 332 333 334 338 347 347 349 350 350 350 349 348 349 348 346 345 342 339
330 331 334 333 333 332 331 331 332 332 334 332 332 338 328 327 329 332 342 341 341 347 347 347 348 348 349 349 349 347 343 344 342
326 329 331 331 329 328 327 324 322 322 314 312 321 325 323 323 325 329 338 336 336 336 341 342 343 344 346 348 348 347 345 342 344
321 317 318 312 320 310 311 309 305 306 307 307 308 320 318 317 320 329 336 336 335 335 335 337 338 340 342 343 345 347 346 342 344
314 313 311 307 308 305 304 301 302 301 302 299 300 311 313 313 315 322 330 332 333 332 331 332 333 335 339 337 338 340 342 345 344
311 309 307 304 303 303 301 300 300 297 297 297 297 302 309 309 310 311 324 326 326 326 326 327 328 328 330 331 330 331 332 335 338
310 307 307 305 302 301 300 299 298 297 296 297 298 297 305 306 306 307 310 319 319 319 319 320 322 324 324 323 323 324 326 328 330
310 307 304 303 302 301 299 298 297 297 298 296 296 298 297 303 304 305 306 310 317 315 314 314 317 318 318 318 318 319 320 322 322
306 306 304 303 302 301 299 297 297 296 296 295 296 296 297 296 302 304 305 305 307 313 313 312 312 313 313 315 316 317 318 319 320
307 306 305 304 302 300 299 298 297 296 296 297 296 296 296 296 299 301 303 303 305 305 313 313 312 313 311 312 313 314 316 317 318
307 306 305 303 301 300 298 298 298 297 297 301 299 294 295 296 295 297 301 301 302 303 301 302 303 313 314 312 312 312 314 313 315
307 306 304 303 303 301 299 298 297 297 296 295 295 295 295 294 295 295 297 299 300 300 300 300 299 301 316 311 311 313 313 312 312
308 307 306 304 302 300 299 298 296 296 296 294 291 291 293 293 294 294 296 296 299 299 300 299 299 299 299 303 312 312 311 311 312
310 307 307 305 304 303 301 299 298 296 296 294 293 288 289 291 292 292 294 294 295 297 297 298 297 297 297 304 309 316 312 312 313
309 309 308 306 305 303 302 301 298 297 295 295 296 292 292 290 290 292 292 292 294 293 295 296 296 296 296 302 306 312 313 312 312
310 309 307 307 307 305 304 301 298 297 296 295 292 290 290 289 288 288 290 292 293 293 294 294 294 295 295 297 302 313 315 314 312

GFSFLT1_sfc_thetae_033.txt.gz
Theta_e
345 348 350 348 346 348 351 353 355 355 355 358 356 357 356 351 345 345 349 345 352 352 351 350 350 350 349 347 346 344 342 339 340
342 343 345 345 345 345 345 347 354 354 354 354 356 355 350 341 340 340 341 345 352 351 350 349 349 350 348 347 345 344 342 338 339
340 339 341 342 343 343 343 345 351 353 353 352 355 352 348 342 339 340 340 348 349 350 349 348 348 348 349 346 345 345 342 338 339
339 338 337 337 339 340 342 344 348 353 350 350 352 349 344 334 335 340 341 350 350 349 349 349 348 348 348 347 347 345 343 339 338
338 337 335 335 335 336 337 342 345 346 344 344 341 345 340 331 332 333 339 345 346 350 350 350 349 348 348 349 348 346 344 340 338
330 332 334 333 333 333 333 334 337 336 334 333 334 337 328 329 330 332 343 341 340 345 347 347 348 347 348 347 348 346 345 343 340
327 329 332 331 331 330 328 327 325 322 314 311 329 326 325 325 327 330 338 335 334 335 341 343 344 345 347 348 347 347 344 344 344
323 319 318 313 320 310 311 308 305 307 308 307 314 321 319 319 322 331 336 335 333 333 335 339 339 341 343 344 346 347 346 342 345
317 315 313 309 308 304 303 301 301 300 302 301 308 314 314 315 317 323 332 334 333 332 332 333 333 337 338 337 338 341 344 345 344
316 313 310 306 303 304 301 299 299 296 296 296 300 310 310 310 312 312 327 329 330 328 327 328 329 329 332 330 330 332 333 335 339
316 311 307 305 302 301 300 299 297 296 295 296 296 303 306 307 307 307 311 322 323 321 320 322 323 325 325 323 323 324 326 328 328
315 311 305 305 303 301 299 297 296 295 296 294 295 297 303 304 303 305 306 310 319 317 316 317 318 319 318 318 318 319 321 322 323
312 311 308 305 303 301 299 297 296 295 294 294 294 294 295 298 301 303 304 305 307 313 314 314 314 315 314 315 316 317 318 319 319
311 310 309 305 302 300 299 296 296 295 295 295 295 294 294 295 299 301 303 303 306 305 313 314 313 314 313 314 314 314 316 315 317
310 306 305 304 302 300 298 297 295 296 296 299 298 294 294 294 294 297 301 301 303 303 302 302 305 314 316 315 314 313 315 314 313
307 307 305 303 303 302 299 297 296 295 295 295 294 294 294 292 294 294 295 298 300 300 301 299 299 300 316 317 313 314 316 314 312
307 306 305 305 303 301 299 298 295 296 295 294 291 291 292 293 293 293 294 295 297 298 299 298 298 298 298 303 312 312 312 313 313
309 307 307 305 306 304 301 300 298 296 294 294 294 288 288 289 291 291 293 294 294 296 297 298 298 297 297 303 306 314 314 313 313
311 308 307 307 304 305 304 303 302 298 296 294 295 291 291 290 289 291 291 292 293 293 295 296 296 295 295 301 306 311 314 313 312
307 307 305 307 305 305 306 303 301 302 297 295 291 289 289 288 288 288 290 291 291 292 293 294 294 294 294 295 300 311 314 314 313

GFSFLT1_sfc_thetae_036.txt.gz
Theta_e
346 348 345 346 347 349 350 353 355 355 355 357 357 358 355 350 345 346 349 347 352 352 351 350 350 349 347 346 345 343 340 339 342
340 343 345 344 344 344 344 348 353 353 354 355 357 355 351 341 341 341 343 347 351 351 350 349 349 350 348 346 345 343 339 339 342
339 338 340 341 342 343 343 346 350 353 352 351 355 351 348 341 339 339 340 349 349 350 349 348 347 348 348 346 346 343 339 339 338
338 337 336 337 338 339 341 342 350 352 351 352 352 349 344 335 337 341 340 350 349 348 349 348 348 348 348 347 346 345 340 339 339
337 336 334 334 334 334 336 340 346 347 346 345 343 345 340 332 333 335 340 346 347 349 349 348 349 349 348 349 348 346 342 339 338
328 333 333 333 332 332 332 334 339 337 331 336 337 335 329 330 330 332 343 340 341 344 346 347 347 347 346 348 348 347 344 342 339
327 329 332 332 330 330 329 328 326 320 313 312 331 328 326 327 328 331 338 336 336 337 339 342 344 346 348 348 347 347 346 346 342
325 320 318 315 319 311 310 307 304 305 308 307 319 322 321 321 324 331 336 335 333 333 335 338 341 343 343 344 346 346 345 344 346
319 318 315 312 308 305 304 301 300 300 301 301 314 316 316 317 319 323 333 334 333 332 332 334 335 339 339 339 338 341 344 345 345
316 315 313 310 305 304 301 300 298 297 295 297 304 311 311 312 314 315 328 331 331 331 329 330 330 331 334 330 331 333 335 337 338
316 314 311 307 303 303 302 299 297 296 294 295 296 306 308 309 309 309 311 325 327 326 324 324 325 327 327 324 324 326 328 329 329
317 314 310 306 303 301 299 297 296 295 295 293 294 297 305 305 305 306 307 311 322 320 319 320 321 321 320 319 319 320 322 323 324
318 315 315 309 304 302 299 297 296 295 294 293 294 294 295 301 302 303 304 306 308 315 317 316 317 318 317 317 316 317 318 319 319
319 315 314 310 307 302 299 297 296 295 294 295 294 293 293 294 298 300 302 304 307 305 314 316 315 315 315 316 316 315 316 316 317
312 311 309 309 304 302 299 298 296 296 295 298 297 294 294 294 294 295 301 302 304 304 304 305 307 316 317 316 317 316 316 316 313
311 310 306 304 305 305 302 297 296 295 295 294 294 294 294 293 293 294 295 299 301 301 302 301 301 302 315 318 318 317 317 319 314
308 309 310 305 303 301 300 300 297 296 296 294 291 292 293 292 293 292 293 294 298 299 299 299 299 299 299 306 315 314 314 316 315
308 308 308 307 303 303 300 299 298 300 296 297 296 289 289 289 291 291 292 293 293 296 297 298 298 298 298 304 307 314 314 314 314
304 305 305 304 304 302 303 302 301 298 298 296 297 292 291 290 290 291 291 291 293 293 295 297 297 297 297 302 305 309 313 315 314
303 303 303 303 302 303 305 302 300 300 301 296 293 293 290 288 290 289 290 291 291 293 293 295 295 295 295 296 300 311 314 314 314

GFSFLT1_sfc_thetae_042.txt.gz
Theta_e
347 346 346 348 349 349 351 352 355 355 354 354 354 354 352 354 352 353 351 353 352 351 351 351 350 348 347 345 343 341 343 341 343
342 342 342 343 343 344 347 350 351 354 354 353 354 353 350 351 349 347 349 352 350 349 349 349 349 348 346 346 344 341 344 343 342
339 339 341 342 340 340 343 346 352 351 352 352 354 351 350 348 348 347 346 349 349 348 348 348 348 348 346 346 344 340 342 339 341
339 337 337 338 338 337 340 341 349 350 352 353 352 348 345 347 347 344 344 348 349 348 347 347 347 348 347 346 345 340 342 341 341
338 337 336 335 335 335 336 338 343 342 343 348 349 344 341 346 347 347 344 343 346 348 349 349 348 348 349 348 348 343 341 341 340
338 339 335 335 335 334 334 335 337 334 337 341 344 341 346 345 344 344 340 337 340 341 344 345 346 347 347 347 349 347 342 340 340
336 336 336 335 334 333 333 332 330 331 340 340 337 342 343 339 340 343 338 336 337 337 338 340 343 345 347 349 348 348 345 342 341
338 335 335 334 333 332 330 329 327 325 329 332 334 337 339 339 340 341 337 336 336 334 334 335 340 343 343 345 347 346 347 346 343
338 335 331 331 330 327 326 325 324 322 322 323 328 333 336 337 338 339 334 335 335 333 332 333 335 338 339 339 342 345 345 345 346
341 337 333 330 329 326 322 321 320 319 317 318 319 325 330 333 335 336 331 332 334 333 332 333 335 333 336 333 336 338 340 340 344
343 341 337 332 329 327 322 319 317 316 315 315 315 317 322 326 329 329 330 329 331 332 332 331 333 333 332 329 329 330 331 333 335
340 339 339 337 332 327 323 319 317 316 315 314 314 314 317 320 322 325 325 325 327 328 328 327 328 330 331 326 324 326 327 327 328
333 334 335 338 332 328 324 320 317 316 315 314 313 313 313 316 318 319 320 320 319 324 325 324 324 327 328 325 323 322 324 323 323
325 331 333 333 332 332 326 323 319 316 316 314 314 313 313 313 314 316 318 319 319 319 323 322 321 322 325 324 322 321 321 321 321
317 320 323 328 328 327 330 326 323 318 317 314 312 313 313 313 313 313 314 316 318 319 319 320 319 320 321 322 323 322 321 321 319
314 314 316 319 322 325 325 327 323 320 318 313 313 313 314 313 312 313 313 314 315 317 318 318 317 318 320 321 322 323 323 322 321
312 312 313 314 315 318 320 319 321 321 319 311 311 310 313 313 313 313 312 312 313 314 315 316 316 316 317 319 322 323 324 324 323
312 312 311 312 313 313 315 318 316 312 317 315 311 307 308 316 315 313 312 312 311 312 314 314 314 314 314 316 317 320 321 321 320
311 310 310 310 311 311 312 313 315 314 310 315 313 311 312 310 310 311 311 311 310 311 312 313 313 313 313 316 316 320 320 319 318
308 308 307 307 308 309 310 311 311 313 311 309 311 310 307 309 305 308 309 309 310 311 312 312 312 313 313 313 314 316 318 317 317

GFSFLT1_sfc_thetae_045.txt.gz
Theta_e
348 346 347 346 349 348 350 352 354 355 354 353 353 352 351 354 347 352 351 352 352 351 351 351 350 349 347 345 342 343 343 344 345
344 344 343 344 344 345 347 350 351 353 353 353 353 352 351 350 345 343 347 350 350 349 350 350 349 348 348 345 342 344 343 343 344
339 340 343 343 342 341 343 346 353 351 351 352 352 350 350 347 342 342 344 349 348 348 347 348 348 348 347 346 342 343 342 341 345
339 337 337 338 339 339 340 342 348 350 352 353 352 347 347 345 343 341 344 352 349 348 347 346 347 348 348 347 343 341 340 343 344
340 339 337 335 336 336 336 340 342 343 344 352 349 344 344 343 343 342 343 346 345 348 350 349 348 347 348 348 348 342 342 342 341
341 342 338 335 336 335 335 335 338 336 340 346 346 345 345 344 340 340 345 340 340 341 344 345 347 348 347 346 349 346 342 341 341
337 338 337 337 336 335 335 334 334 335 336 342 343 339 341 343 341 340 344 339 337 338 338 341 343 345 347 349 347 349 344 341 341
340 337 337 337 336 333 334 332 329 325 327 329 330 332 335 337 338 340 341 338 338 337 335 336 340 343 343 345 348 346 347 344 341
342 338 336 333 331 329 327 325 326 325 323 322 325 327 331 333 335 338 341 339 338 337 334 333 337 339 339 341 344 347 345 345 345
344 343 339 336 332 329 326 323 321 321 319 318 318 320 325 330 332 337 339 337 337 337 334 332 334 336 338 336 338 342 343 343 344
342 344 344 341 337 332 328 323 320 319 318 317 316 316 319 324 328 330 334 334 334 334 334 333 333 335 335 333 332 335 335 337 338
335 336 338 340 340 337 331 326 322 319 318 316 316 316 315 319 322 326 328 330 333 332 333 332 331 332 335 331 328 329 330 330 332
325 333 334 336 336 336 333 328 323 321 319 316 316 315 315 314 317 322 324 325 323 329 330 329 328 328 332 331 326 326 328 327 327
316 319 323 331 334 331 330 332 328 322 321 319 318 317 316 314 314 316 321 324 323 322 328 328 327 326 328 330 327 325 325 325 325
314 315 316 318 321 328 329 326 327 328 322 318 317 317 317 316 315 314 316 319 321 322 324 324 322 323 325 327 327 325 324 323 323
312 313 313 315 315 316 320 324 324 321 327 320 317 318 317 315 315 315 315 316 318 319 320 321 320 319 323 324 326 326 325 324 323
309 310 312 312 313 314 315 317 318 319 320 319 317 310 315 316 315 315 314 313 315 316 317 318 318 319 319 321 325 325 326 326 324
309 309 310 310 312 312 314 315 316 315 320 317 313 308 306 315 318 316 315 314 314 314 315 316 317 316 317 321 321 325 325 326 327
308 308 309 309 309 309 310 310 312 314 312 315 315 312 311 307 309 316 315 315 314 314 315 314 315 315 315 319 320 323 325 326 325
309 308 308 309 308 308 308 308 308 310 309 312 312 313 310 309 306 302 311 311 313 314 313 314 314 314 315 315 317 322 324 325 324

GFSFLT1_sfc_thetae_048.txt.gz
Theta_e
348 348 347 346 348 348 350 352 353 355 355 354 353 352 352 355 345 348 351 348 352 352 352 351 350 348 346 343 344 344 346 346 347
343 344 345 345 344 345 346 349 354 351 352 355 353 352 353 349 339 343 345 347 351 350 351 351 349 349 347 343 345 344 345 346 346
340 338 340 342 343 342 342 346 350 352 351 355 353 351 352 346 339 338 343 350 349 349 348 349 350 348 348 344 344 344 343 346 347
340 338 336 336 337 337 338 341 346 349 351 353 352 349 350 342 340 341 345 353 350 348 347 347 348 349 348 347 342 343 341 345 347
342 340 338 335 335 336 335 338 341 342 345 352 350 347 347 338 338 337 343 350 348 351 350 349 349 348 350 349 345 343 342 343 347
340 342 342 337 335 336 336 335 338 339 340 347 350 348 340 340 338 337 347 347 344 344 345 346 348 348 348 348 349 344 343 343 343
337 340 340 338 336 337 337 336 335 336 331 337 347 337 334 336 336 337 346 343 342 340 339 342 344 346 346 347 348 347 344 343 342
333 333 332 331 336 330 332 330 326 321 322 322 338 334 328 332 335 339 345 342 341 340 337 338 341 343 343 346 347 349 346 343 343
342 340 332 330 328 328 323 323 323 321 318 314 314 319 321 327 328 337 345 343 342 341 338 336 339 342 341 343 345 348 348 346 343
339 339 340 339 328 324 321 319 316 315 315 313 312 310 312 322 325 334 343 343 341 340 339 336 336 339 340 340 342 346 346 346 347
335 335 336 337 337 336 329 321 317 313 312 311 310 308 308 311 320 331 334 341 340 340 339 336 335 336 339 337 338 341 342 342 343
327 330 332 335 335 334 334 331 324 316 314 310 309 308 308 308 312 320 328 332 338 337 337 336 334 335 338 337 335 336 336 338 340
309 311 321 330 330 330 331 331 328 323 314 311 310 308 308 307 307 313 318 323 326 333 336 334 334 333 335 337 333 333 334 333 334
307 308 308 311 323 325 325 326 326 326 324 316 313 312 308 307 309 307 314 316 316 320 332 334 333 331 331 335 333 331 332 332 331
305 307 307 307 308 311 321 320 322 324 324 325 321 313 312 309 306 306 310 314 314 314 317 323 324 330 328 331 333 330 328 330 329
303 304 306 306 306 306 308 310 315 315 318 319 321 318 317 311 307 308 307 308 313 312 312 317 315 318 327 330 330 331 328 327 326
304 301 303 304 304 304 304 305 307 310 314 311 315 311 313 315 315 307 308 307 310 312 312 313 313 311 315 317 328 329 329 328 327
303 302 302 301 302 302 303 303 303 303 309 313 310 307 304 306 315 314 309 307 308 310 311 312 311 310 313 318 322 327 329 329 328
303 302 302 301 302 300 300 302 300 301 301 307 313 310 310 305 304 311 311 313 308 307 307 311 311 311 309 318 320 324 327 328 329
302 302 302 300 300 301 300 299 299 299 298 299 302 306 306 307 307 305 308 311 311 307 307 309 309 308 308 309 317 324 325 326 328

GFSFLT1_sfc_thetae_051.txt.gz
Theta_e
348 348 347 346 347 348 349 351 353 354 353 353 352 352 353 353 347 346 350 346 352 352 351 350 349 346 344 344 345 347 348 347 350
340 342 343 343 344 344 345 348 353 351 352 353 353 352 353 346 343 344 344 346 352 351 351 350 349 347 344 345 344 346 346 347 348
339 337 337 338 340 340 339 345 348 352 351 353 352 352 352 344 339 342 342 351 349 349 349 349 349 348 345 344 346 345 347 346 348
340 337 335 335 335 335 335 340 345 348 351 352 352 351 351 342 337 344 344 351 348 348 347 348 348 348 348 343 344 343 346 347 347
343 341 339 336 335 335 334 336 341 341 345 351 351 349 348 338 336 340 346 353 351 350 349 348 349 349 349 348 344 342 345 348 349
340 341 343 342 337 335 335 335 336 340 340 344 350 350 339 338 337 339 350 349 349 349 348 347 349 348 348 349 347 344 345 345 348
341 342 346 342 339 338 338 337 336 335 330 330 341 342 336 332 334 336 347 347 345 344 344 345 346 347 347 347 349 346 345 344 345
338 332 333 330 337 329 332 331 329 323 321 324 329 337 333 328 331 339 346 347 345 343 341 341 343 345 344 345 348 349 345 344 343
336 337 339 331 328 327 325 324 325 322 319 314 312 318 320 324 328 336 345 347 345 344 342 340 341 343 343 344 345 349 346 344 344
332 332 336 337 338 332 327 320 317 314 315 314 312 311 308 309 321 331 345 347 347 344 343 340 340 342 342 342 344 347 348 347 345
323 326 330 334 336 334 334 331 326 318 311 310 311 309 307 306 311 331 339 345 346 344 343 341 338 339 341 341 341 345 346 347 347
306 309 314 321 328 330 330 330 331 328 323 313 309 307 306 306 305 328 330 337 342 343 343 341 339 337 338 339 339 341 343 343 344
303 304 305 307 317 324 322 322 323 324 326 321 316 310 307 306 305 308 326 327 331 338 341 340 339 337 337 338 338 338 338 340 342
302 302 303 304 305 309 319 320 318 318 320 322 325 324 315 311 310 304 311 321 324 324 336 338 338 337 335 337 337 337 338 337 338
301 301 301 302 303 303 304 312 315 315 317 321 319 320 324 317 311 308 306 313 319 318 320 328 329 336 334 333 337 335 336 336 335
301 300 300 300 300 301 302 303 305 309 312 310 310 314 318 318 319 311 307 308 313 313 316 319 319 324 334 334 333 337 334 334 334
302 300 299 299 299 300 300 300 300 304 309 307 306 303 306 311 314 317 310 307 310 312 312 316 316 315 317 320 331 334 334 331 331
300 299 299 298 298 298 298 299 298 297 300 308 305 299 298 302 307 309 310 309 307 312 312 312 315 314 313 318 323 329 333 331 330
299 299 299 298 298 297 298 300 298 297 296 299 310 307 305 301 299 306 309 312 310 304 308 312 312 313 312 316 320 324 329 331 331
298 299 298 298 297 297 297 297 296 296 295 296 296 302 303 303 303 300 302 307 310 311 307 304 310 312 313 313 316 324 326 328 331

GFSFLT1_sfc_thetae_057.txt.gz
Theta_e
345 344 345 343 345 347 348 352 352 353 353 352 350 350 350 349 345 343 346 344 352 350 349 347 344 343 345 346 346 343 346 345 348
339 339 339 339 341 342 343 346 351 351 352 354 351 350 348 338 342 341 342 344 350 350 348 347 345 342 342 344 345 343 348 344 347
337 335 335 335 336 336 336 342 346 350 352 353 352 350 347 338 337 340 341 350 349 348 348 348 347 343 343 342 344 343 345 347 348
340 338 336 335 335 334 334 339 343 347 348 350 353 351 349 336 338 341 339 350 348 347 347 347 347 347 343 344 343 344 343 346 348
345 343 341 341 340 338 336 335 339 343 344 346 351 351 347 336 335 338 338 349 348 348 347 347 347 348 347 343 343 345 345 346 347
340 342 345 344 345 342 340 338 337 338 342 343 344 346 338 334 334 334 344 349 349 349 349 348 348 348 348 348 344 344 346 347 347
338 340 344 344 344 344 342 341 341 338 327 328 334 330 332 334 332 331 343 349 349 350 349 349 349 349 348 348 348 345 346 348 348
329 331 334 336 338 329 329 325 323 324 324 321 319 322 324 328 331 333 340 347 349 350 349 347 348 348 348 348 347 347 346 346 349
321 322 322 321 330 332 331 329 328 321 318 317 316 313 315 324 328 330 338 344 348 348 349 347 345 345 345 346 346 347 348 347 347
308 308 312 313 315 325 328 328 329 327 326 323 314 310 309 308 309 313 328 338 346 347 348 347 346 344 343 343 343 344 348 348 347
301 301 302 303 305 311 317 318 320 323 325 324 324 321 316 308 305 306 311 326 341 347 347 348 347 345 343 343 343 342 347 347 348
299 299 299 299 301 305 306 309 313 314 316 314 319 322 322 318 316 310 306 319 333 343 347 348 347 346 344 342 342 341 342 346 347
298 298 297 299 300 302 301 303 307 307 310 309 311 315 316 315 315 314 308 316 327 338 345 347 347 346 344 342 341 340 340 342 345
296 296 297 297 298 297 298 300 302 305 305 306 310 311 310 310 314 316 314 309 319 330 337 344 343 346 344 342 340 339 339 339 342
296 296 297 296 296 295 296 296 298 301 303 307 307 306 307 307 309 306 314 312 310 321 325 330 337 343 344 342 340 339 339 338 338
297 297 296 296 295 294 295 295 297 297 300 301 299 301 304 304 304 306 310 307 308 309 320 324 328 332 340 341 341 339 339 338 337
297 295 295 294 294 294 294 293 293 295 298 296 297 293 296 300 305 303 306 305 308 308 311 315 319 323 327 332 337 337 338 338 338
295 294 294 293 293 293 292 293 292 292 293 296 296 292 291 295 299 302 303 303 305 305 308 310 313 317 317 323 330 333 336 337 338
295 295 294 293 293 292 292 296 293 291 291 293 297 298 297 295 294 296 300 302 303 302 305 309 309 310 312 318 323 329 333 334 336
294 294 293 293 292 292 292 292 292 291 291 291 291 291 293 295 295 292 293 299 301 302 304 306 309 310 310 310 316 323 328 331 333

GFSFLT1_sfc_thetae_060.txt.gz
Theta_e
343 342 342 342 343 347 347 350 353 352 352 353 350 351 349 349 345 343 346 346 350 349 348 346 344 344 345 347 343 347 345 346 349
337 337 338 337 339 339 340 345 350 352 353 353 351 350 347 340 342 341 342 344 349 348 347 346 344 343 343 345 344 346 343 345 347
338 336 335 336 336 336 336 338 344 349 350 351 351 350 346 337 338 341 341 346 348 346 347 346 345 342 342 343 343 344 347 344 347
341 341 339 338 339 339 338 336 339 344 347 348 350 350 348 336 336 341 339 345 347 346 345 346 346 345 342 343 342 343 343 347 347
346 346 344 344 344 343 341 339 338 338 341 344 346 348 345 335 336 336 338 345 348 347 347 346 346 347 346 343 343 343 343 345 346
338 345 346 347 347 346 344 342 342 341 338 338 338 341 336 335 334 333 339 345 348 348 349 348 347 347 348 347 344 343 345 346 346
329 332 337 341 340 339 339 338 335 330 327 324 327 323 325 327 331 333 341 343 349 349 349 348 349 348 347 347 347 345 346 347 347
318 317 317 318 331 331 331 329 327 322 321 320 319 317 317 321 325 330 338 342 346 350 348 349 348 347 348 348 347 347 346 347 349
306 307 309 308 311 318 322 325 327 327 325 322 318 314 312 313 317 321 329 339 344 349 349 348 347 346 345 346 346 347 348 347 347
301 301 302 302 303 308 311 314 317 319 321 323 322 320 317 313 309 308 319 325 332 341 347 348 348 347 345 344 344 344 346 347 347
298 298 298 298 300 302 302 304 309 311 311 314 315 315 319 318 316 312 310 321 324 330 338 347 347 346 346 345 343 343 343 344 347
296 296 296 296 298 300 299 299 303 303 306 306 309 311 315 316 314 312 312 312 320 325 330 340 346 346 346 346 344 344 342 342 346
296 295 295 296 297 298 297 298 300 300 301 302 303 307 310 310 309 311 314 311 312 321 328 333 340 346 346 345 345 344 341 341 341
295 295 295 295 295 294 296 296 297 298 298 300 302 305 305 305 309 307 310 310 312 314 323 329 336 344 346 345 344 344 341 340 339
295 295 294 294 294 294 293 293 295 296 297 302 302 301 302 303 303 304 307 310 309 308 315 320 325 331 342 344 342 343 341 340 339
295 294 294 294 293 292 292 292 293 293 296 296 295 296 299 298 301 302 306 306 307 307 310 315 320 325 330 338 342 342 341 340 341
296 293 293 293 292 292 291 291 291 292 294 292 293 290 293 296 304 302 303 303 304 307 307 307 313 318 321 327 334 338 340 339 341
294 293 292 292 291 291 290 290 290 290 291 293 292 289 288 292 295 297 299 299 300 303 304 305 308 312 317 321 324 328 336 339 340
293 293 292 291 291 290 291 294 291 289 289 290 295 294 293 291 290 293 297 299 300 299 301 304 307 308 309 315 320 323 328 333 338
293 292 292 291 291 291 291 290 290 290 289 289 289 289 290 292 292 289 292 294 299 300 301 303 305 306 308 310 313 319 322 327 331

GFSFLT1_sfc_thetae_063.txt.gz
Theta_e
340 339 339 339 341 342 344 348 351 352 353 352 350 351 349 349 351 348 349 350 349 349 348 345 344 345 347 344 347 346 347 350 352
336 337 337 337 337 337 336 340 346 349 351 352 351 349 346 347 351 349 348 349 348 348 347 346 344 343 344 345 345 347 344 347 351
342 339 338 340 341 341 338 337 340 344 348 349 351 350 347 344 344 348 349 347 349 346 346 346 345 342 342 343 344 346 345 345 348
345 345 345 344 344 344 342 341 338 339 342 345 347 349 346 345 344 346 348 345 349 347 345 346 346 345 342 343 343 343 346 347 348
348 347 347 348 348 347 345 344 344 343 341 339 339 343 344 345 342 344 346 346 348 349 347 346 345 346 346 343 343 343 343 346 348
331 336 342 344 342 342 341 341 339 336 335 337 336 332 334 338 341 341 340 343 346 349 349 347 347 346 347 347 345 343 344 345 347
318 320 322 326 332 334 334 334 333 333 333 332 330 330 329 328 330 334 337 339 344 348 350 349 348 347 347 347 347 347 345 347 347
312 312 312 314 319 318 319 322 325 326 328 329 329 330 329 327 326 328 330 334 342 345 349 350 348 346 345 347 347 348 347 346 348
309 309 310 311 312 312 312 313 316 317 317 319 320 323 324 328 328 326 323 326 330 338 346 349 348 348 346 345 345 346 347 347 347
308 307 308 308 310 309 309 310 311 312 312 313 315 315 317 321 323 323 322 324 328 329 333 341 347 347 347 346 345 345 344 346 346
307 306 307 307 308 308 307 307 309 309 310 310 312 313 314 315 316 316 318 320 324 327 331 333 337 346 346 347 346 345 345 343 344
306 305 305 305 306 306 307 306 307 307 307 308 310 310 311 312 312 313 314 316 319 320 323 331 332 338 346 346 347 347 345 343 343
306 305 305 305 306 306 306 305 305 305 305 306 307 308 310 310 311 312 313 314 315 319 322 326 332 334 337 345 345 345 346 343 342
305 305 305 304 305 304 303 303 304 302 303 303 305 306 307 308 309 309 311 314 318 319 319 322 326 330 333 341 345 344 344 345 344
305 305 304 304 303 303 302 301 302 302 302 302 302 304 305 306 307 308 310 315 316 315 315 319 319 322 328 333 341 344 344 344 345
304 304 303 303 302 301 301 301 300 301 302 301 301 302 304 306 308 310 309 313 312 313 312 313 312 314 320 325 332 342 342 342 344
302 302 302 302 301 301 301 300 299 300 301 298 298 297 298 306 309 307 307 307 310 310 310 311 310 312 316 322 324 328 336 342 341
301 301 301 301 301 300 300 300 300 297 299 300 297 294 293 297 301 302 304 304 304 307 308 308 309 310 314 317 319 321 324 332 340
300 300 300 300 300 299 300 300 300 299 296 298 299 300 298 293 292 299 301 303 302 304 305 307 309 310 313 314 317 319 320 323 330
299 299 299 299 299 299 299 299 298 298 297 297 296 297 297 298 295 292 295 299 302 303 304 305 305 308 312 310 313 315 316 320 323

GFSFLT1_sfc_thetae_066.txt.gz
Theta_e
338 338 338 338 338 338 339 345 349 352 352 353 351 350 348 351 349 348 347 348 348 348 348 346 345 346 347 346 348 346 351 352 353
339 338 341 342 342 339 337 339 342 347 349 351 351 350 348 346 348 347 347 348 348 347 346 346 345 344 345 346 348 344 347 350 352
344 344 344 344 344 343 342 340 338 341 345 347 349 350 348 347 346 347 348 347 349 347 346 346 345 343 344 345 345 348 345 347 351
348 347 348 348 348 347 345 345 344 342 340 341 344 346 348 347 345 344 344 347 348 349 345 345 346 345 342 343 344 344 347 346 349
341 346 346 345 345 345 343 342 341 339 339 340 338 336 340 343 344 342 344 344 347 349 350 346 345 345 346 344 342 343 344 347 348
327 327 333 336 337 337 337 337 336 337 334 333 333 334 329 329 332 337 340 340 344 346 349 349 346 345 345 346 346 343 344 345 347
319 319 320 322 323 323 326 328 329 336 335 337 337 336 335 332 330 329 334 335 338 344 346 349 348 347 346 345 346 347 345 346 347
316 316 316 316 317 316 318 319 321 323 324 328 331 331 332 335 334 331 328 330 332 334 342 346 347 347 346 345 345 346 346 347 348
312 312 313 313 313 313 313 313 314 315 316 317 320 323 326 330 332 334 326 327 331 333 333 338 346 347 347 346 345 345 346 346 348
311 310 311 311 311 311 310 311 311 312 312 312 312 314 316 320 323 326 325 321 325 329 333 334 336 341 347 347 346 345 345 345 346
309 309 309 309 309 309 309 309 309 309 310 310 311 312 312 313 315 317 320 322 320 323 325 329 333 335 339 347 346 346 345 344 344
309 308 308 308 308 308 308 308 308 308 308 308 309 310 311 312 313 313 315 317 323 320 319 324 328 334 335 339 348 346 347 345 344
309 309 308 308 308 307 307 306 306 306 306 306 307 308 309 310 311 312 313 314 314 320 324 322 326 330 335 336 339 348 346 346 345
310 309 308 308 308 307 306 306 305 305 305 305 306 307 307 308 308 309 311 313 315 317 324 320 323 326 330 334 336 341 347 346 346
309 309 308 308 307 306 306 304 305 305 305 304 304 307 307 308 308 308 310 312 316 319 318 317 318 317 321 326 333 336 343 346 346
308 308 307 307 306 305 305 304 304 303 305 303 303 304 306 307 309 310 310 312 313 315 315 314 315 315 320 319 325 332 336 343 344
306 306 306 306 305 305 305 304 303 303 304 300 300 298 301 305 310 310 309 310 311 312 313 313 313 314 314 318 320 322 327 334 342
305 306 305 304 304 303 304 304 303 300 303 302 299 296 295 298 302 304 306 306 306 307 307 309 310 310 311 315 318 322 321 324 329
305 304 304 304 304 303 303 303 302 301 299 301 301 301 300 295 295 301 302 304 303 305 306 307 308 309 311 314 317 317 317 319 322
304 304 303 303 303 303 302 301 301 301 299 299 299 299 299 299 296 294 298 301 303 304 305 306 306 308 308 309 313 318 318 315 317

GFSFLT1_sfc_thetae_069.txt.gz
Theta_e
338 341 343 342 340 338 339 343 347 351 352 352 352 351 351 352 347 344 344 346 349 348 347 346 346 346 347 349 345 350 352 352 353
342 343 344 345 344 343 341 339 341 345 347 349 351 351 351 347 343 344 343 347 350 348 346 346 345 345 346 347 348 347 349 352 352
347 347 347 348 347 346 345 344 341 340 342 345 347 349 350 346 341 341 345 348 348 349 345 345 346 345 345 345 347 348 347 349 350
349 349 347 348 349 347 345 344 342 343 341 339 338 338 343 343 340 338 344 348 348 349 349 344 345 345 344 344 345 346 348 346 349
338 341 340 342 341 341 340 339 339 339 335 336 336 337 338 338 336 337 342 344 345 347 348 348 344 344 345 345 343 344 345 348 348
327 324 326 328 328 328 330 331 333 337 339 336 335 338 335 334 328 329 339 339 340 342 345 348 348 345 344 344 345 344 343 345 347
320 323 323 322 322 323 325 326 334 334 328 332 339 334 335 335 334 332 333 333 334 336 339 345 348 347 345 345 344 345 346 344 346
315 315 315 316 322 314 316 316 315 316 318 320 323 326 328 330 333 334 333 332 333 335 335 336 344 348 347 346 345 345 346 347 346
312 312 313 314 313 312 312 312 312 313 312 312 312 313 316 322 326 331 328 325 328 331 335 335 336 343 347 347 346 345 345 346 347
312 311 311 311 311 310 310 310 310 310 310 311 311 311 312 312 314 321 328 321 322 325 330 331 334 336 339 345 347 348 346 345 346
311 310 310 310 310 309 309 308 308 308 309 309 310 310 311 311 313 315 318 327 323 322 323 326 330 333 335 338 345 347 347 347 346
311 311 310 309 310 309 308 308 308 308 308 308 308 309 309 311 310 313 315 317 326 325 322 321 324 329 333 336 338 345 348 347 347
311 311 310 310 310 310 308 307 307 307 307 307 308 307 309 308 309 311 313 315 314 321 327 323 323 325 330 334 337 339 346 347 346
311 310 310 310 310 309 308 307 306 305 306 306 307 307 308 309 309 309 312 314 316 316 322 323 322 323 326 329 334 336 338 346 347
310 310 310 309 309 308 308 306 307 306 306 304 304 307 308 309 309 309 309 312 316 317 322 321 319 325 322 321 326 332 336 337 347
309 309 309 309 308 307 307 306 305 305 306 304 304 305 305 306 308 309 310 312 313 315 315 318 316 316 326 321 320 325 331 336 338
308 308 308 307 307 306 306 307 304 304 305 301 302 298 301 305 307 308 306 305 309 309 311 312 314 315 316 318 323 323 322 325 333
307 307 306 306 306 306 306 306 306 302 303 303 300 296 295 299 302 303 305 305 306 306 307 308 309 310 311 314 316 323 322 321 324
307 306 306 305 305 305 305 304 303 303 300 302 301 301 300 296 295 301 303 303 303 305 306 306 306 308 309 314 318 320 320 317 317
307 306 305 305 305 304 303 302 301 302 301 301 300 300 300 300 297 294 298 301 303 305 305 306 306 307 308 309 312 318 321 320 316

GFSFLT1_sfc_thetae_072.txt.gz
Theta_e
345 346 346 344 343 341 339 340 345 348 348 352 352 352 352 353 345 343 347 344 350 348 347 346 346 347 349 347 349 352 352 352 353
347 347 348 348 347 347 346 341 340 342 345 347 349 351 351 344 341 339 343 346 351 349 347 347 345 346 347 349 347 349 352 353 352
349 350 350 350 349 347 346 345 344 343 340 339 340 342 345 341 339 339 344 350 350 350 347 346 346 345 345 346 348 347 348 350 350
347 346 346 344 345 343 342 341 341 340 340 339 338 338 340 333 336 336 341 350 348 348 349 346 345 346 344 344 346 347 349 348 348
335 333 334 334 334 332 333 333 336 338 339 339 339 341 342 329 324 336 339 343 342 343 346 348 345 344 345 345 343 344 347 348 347
319 324 325 325 325 325 326 328 334 338 341 340 343 343 332 330 327 332 338 337 337 338 340 345 348 345 343 343 345 344 344 347 347
317 323 329 327 327 330 330 331 329 322 313 316 327 322 321 325 328 329 337 336 336 337 337 337 344 348 345 344 343 344 345 345 346
308 308 309 308 317 308 310 308 308 306 307 306 305 307 309 316 321 333 335 333 333 334 336 337 337 343 348 346 345 345 345 347 346
305 305 306 305 305 303 304 304 304 304 304 302 302 302 303 305 307 327 332 327 325 325 330 334 336 337 341 347 347 346 345 345 347
304 303 304 303 304 303 302 302 302 302 303 303 302 301 302 303 305 308 328 326 322 322 323 326 332 334 336 339 343 347 347 345 346
304 304 304 303 303 302 302 300 301 301 302 303 302 301 301 302 303 306 308 329 329 323 322 322 323 327 333 335 337 341 347 346 347
305 304 303 303 304 304 303 302 302 302 303 300 301 302 302 302 301 302 305 309 323 330 324 321 322 323 327 333 336 338 340 348 346
305 305 303 303 304 304 302 302 301 300 300 299 300 300 301 301 301 303 304 305 308 316 326 321 322 323 324 325 331 336 338 340 346
305 304 304 304 304 303 303 302 300 299 299 300 298 299 300 301 304 301 302 304 307 308 318 325 325 322 323 325 325 329 335 337 342
304 304 304 303 302 303 301 299 300 299 299 302 301 298 299 300 300 300 303 303 306 307 308 313 315 323 321 324 322 321 326 333 337
302 303 302 302 301 300 301 300 298 298 299 297 297 297 300 298 298 299 300 301 302 304 307 309 311 311 325 328 322 321 323 328 331
303 301 301 301 300 299 299 299 298 297 298 294 293 291 294 296 298 297 299 297 298 300 302 301 303 305 307 311 323 322 318 320 321
302 301 299 299 299 298 298 298 297 295 296 295 293 289 288 293 296 295 297 296 297 297 299 300 301 301 301 307 310 319 323 320 320
302 301 300 299 298 297 297 299 295 294 292 294 298 294 292 290 290 293 294 296 297 296 297 298 299 299 299 308 314 319 323 321 319
302 301 299 298 298 297 296 296 295 294 293 292 292 292 292 292 291 289 292 294 295 296 297 298 298 299 300 300 306 316 317 318 318

GFSFLT1_sfc_thetae_078.txt.gz
Theta_e
348 349 347 347 347 345 343 342 340 340 340 339 340 342 343 341 341 343 345 340 347 347 346 345 347 348 348 351 352 351 351 351 351
351 349 349 346 347 346 345 344 343 343 343 343 343 339 340 336 340 341 342 345 349 347 346 345 345 346 347 347 350 351 350 350 351
348 346 345 343 341 340 341 340 339 341 343 344 343 344 341 333 339 340 342 348 348 349 346 345 344 344 345 346 347 349 350 350 350
340 338 333 331 331 331 333 332 331 338 338 337 337 340 342 324 330 338 337 348 345 346 346 345 344 343 343 344 347 347 349 348 348
330 328 329 328 328 328 327 327 326 326 327 328 327 324 327 325 333 334 336 342 339 340 341 345 345 343 343 343 343 346 347 346 347
318 329 328 325 325 325 325 324 323 319 319 322 321 315 306 323 328 330 342 340 339 339 338 338 341 346 342 343 344 343 346 346 345
315 319 322 322 320 321 321 320 317 310 301 302 308 301 301 305 323 329 339 332 330 331 334 337 337 339 345 344 342 344 343 345 346
302 301 300 300 310 300 302 301 300 299 300 300 299 299 299 299 303 325 332 328 324 322 324 328 335 336 338 343 345 344 344 345 345
299 299 299 299 299 298 298 298 299 299 299 297 298 297 297 298 300 303 320 324 325 324 322 322 325 331 335 336 340 343 345 345 346
300 299 299 298 299 298 297 298 298 298 299 299 298 297 297 297 299 300 314 320 323 323 321 322 322 323 325 330 335 337 340 344 345
300 299 299 299 299 298 298 298 297 297 297 299 298 297 297 297 298 299 300 315 319 322 321 320 320 322 323 326 329 333 337 339 344
299 299 298 298 299 299 299 299 298 298 299 297 298 298 297 297 297 298 299 301 310 315 320 320 319 319 322 324 325 326 330 337 338
300 299 299 299 300 300 298 298 297 297 296 296 297 296 297 297 297 298 297 298 301 307 316 322 317 318 321 322 324 325 326 331 337
300 299 299 300 300 299 298 298 297 296 296 298 297 296 295 295 298 295 296 298 299 300 308 318 321 322 319 320 321 323 322 322 326
301 300 300 299 298 298 297 296 296 296 295 299 297 295 295 294 294 294 296 296 297 296 298 300 303 315 321 324 321 321 322 321 324
300 300 299 298 298 297 297 296 295 295 294 293 292 292 293 291 292 293 293 295 296 295 297 296 297 299 311 313 315 318 321 321 320
300 299 299 297 297 295 295 295 294 294 293 291 288 287 290 292 294 295 293 293 294 296 296 294 295 295 297 302 312 314 315 316 317
300 298 298 297 295 295 294 294 293 291 292 291 290 286 284 287 291 291 292 291 293 293 293 295 295 295 295 299 303 312 315 316 315
300 298 297 295 295 294 294 296 293 291 290 290 294 290 289 286 286 289 290 292 292 292 292 293 294 294 295 300 305 309 312 312 312
298 297 296 295 294 294 293 292 291 291 290 289 289 288 288 287 286 287 288 290 290 291 292 292 292 293 294 295 300 308 309 311 312

GFSFLT1_sfc_thetae_084.txt.gz
Theta_e
347 345 346 346 346 346 345 345 346 344 344 345 347 349 348 345 340 340 343 340 348 346 345 346 347 347 351 352 352 352 352 351 351
348 347 345 344 343 340 342 344 341 338 337 341 345 347 346 338 338 339 340 342 346 348 346 344 345 347 347 351 351 351 352 351 351
343 340 337 337 336 335 335 335 335 333 332 335 342 341 341 337 335 335 337 346 344 345 348 346 344 344 346 346 349 350 350 351 351
335 333 334 332 333 332 330 331 331 330 329 329 339 341 339 330 331 333 334 345 342 340 341 346 346 344 344 345 346 348 347 349 350
333 331 331 331 329 328 327 326 326 326 326 325 322 321 326 325 329 331 332 340 338 338 339 339 342 345 344 344 344 347 346 348 350
318 329 328 327 326 325 324 323 320 317 318 320 317 311 301 304 315 320 331 331 329 328 329 335 339 342 345 345 343 345 346 345 347
317 321 324 323 323 322 321 318 315 307 298 299 306 298 298 299 301 307 324 327 328 327 326 327 333 338 340 343 345 342 343 343 344
298 298 298 299 308 298 300 299 298 297 298 297 296 297 297 296 298 305 321 324 326 327 324 324 326 329 334 337 341 344 344 343 343
296 297 297 297 296 296 297 297 297 297 297 295 295 294 295 296 297 300 317 319 322 325 324 323 323 324 326 329 335 338 340 343 345
297 296 296 296 297 297 296 296 296 296 296 297 296 295 295 295 296 297 311 317 319 321 323 325 321 321 323 325 328 329 332 338 341
297 297 297 297 297 297 297 296 296 296 296 296 296 295 295 294 295 297 298 314 319 321 322 321 322 319 321 323 325 326 329 330 337
297 297 297 297 297 298 297 296 296 296 297 295 296 296 295 295 295 296 297 299 311 320 322 327 326 320 320 322 324 324 326 328 333
298 298 298 298 298 297 297 296 296 295 295 294 295 295 294 294 295 295 295 297 297 302 314 316 321 323 326 325 323 322 324 324 324
298 298 298 298 298 296 297 295 295 294 294 296 295 293 293 293 295 292 294 295 296 296 304 310 312 316 319 320 321 324 324 323 322
298 298 298 297 296 295 295 294 294 293 293 296 295 292 292 292 291 291 294 294 295 295 295 295 298 309 313 316 319 320 320 322 324
298 297 297 297 296 295 295 294 293 292 292 291 291 291 291 290 290 290 291 293 293 293 294 294 294 296 307 309 314 316 318 319 320
298 298 297 296 295 294 293 293 292 292 291 289 287 286 289 289 291 290 291 290 292 293 294 293 294 294 295 300 307 309 314 316 318
298 297 296 295 294 294 292 292 292 291 290 290 289 285 283 285 289 290 290 290 291 291 292 293 293 293 293 297 300 306 309 312 315
297 297 295 294 294 293 292 293 292 291 290 289 292 288 288 286 284 288 289 290 290 290 291 292 292 293 293 298 302 306 307 309 312
297 296 294 293 293 292 292 291 290 290 289 288 288 287 286 286 285 285 285 288 289 290 290 291 291 292 292 293 297 305 307 308 309

GFSFLT1_sfc_thetae_087.txt.gz
Theta_e
347 346 346 346 345 345 346 344 341 342 346 349 350 349 348 346 347 346 346 344 349 347 345 347 347 349 352 351 352 353 352 352 352
348 345 345 341 341 344 340 338 336 338 343 346 348 348 346 344 344 343 343 343 345 350 348 345 346 347 348 351 351 351 352 352 351
341 339 339 337 337 338 337 335 334 334 342 345 344 344 341 339 339 340 342 345 342 342 345 348 345 345 347 348 350 350 351 352 352
336 336 335 335 333 333 333 332 331 330 331 334 337 338 338 338 337 335 337 343 340 341 341 341 347 345 344 346 347 349 348 350 351
334 333 332 331 330 329 327 326 327 327 326 324 322 320 321 325 325 329 330 336 332 332 333 340 342 347 346 344 345 348 346 349 350
328 330 329 328 327 326 324 322 319 317 319 320 317 313 310 312 313 322 328 330 332 330 329 331 338 341 345 347 344 345 346 346 348
324 326 326 325 324 322 320 318 315 311 308 308 310 308 309 309 309 318 325 327 330 329 326 327 330 335 338 342 345 344 344 345 344
311 310 310 311 312 308 309 308 308 307 307 307 306 307 307 307 308 311 320 322 325 328 326 325 326 328 331 334 340 342 345 344 343
307 307 308 308 308 308 308 307 307 307 306 306 306 306 306 306 306 308 317 320 322 324 327 326 324 324 326 329 334 334 338 342 343
307 307 308 308 308 308 308 307 307 307 306 306 305 305 305 305 306 308 317 320 322 322 323 323 323 322 324 326 328 329 331 333 340
308 307 307 307 308 307 307 307 306 306 306 305 305 304 305 305 305 306 309 318 323 324 328 326 323 321 322 324 326 326 328 330 334
308 307 307 307 307 306 306 306 306 306 306 305 305 304 304 305 304 305 306 307 310 317 320 324 327 327 326 324 323 324 326 325 328
308 308 308 307 308 308 307 307 306 305 305 305 305 304 304 304 304 304 305 306 305 307 314 316 319 322 323 324 325 326 325 325 324
308 308 308 308 308 308 308 306 306 306 305 305 305 305 304 303 302 303 304 305 305 305 307 309 310 314 318 320 322 322 323 325 325
308 308 308 307 307 307 307 306 306 305 304 303 303 304 303 304 304 302 303 304 304 304 305 305 304 309 312 314 318 319 320 321 323
308 308 307 307 307 307 306 306 304 304 303 303 304 304 303 303 302 303 304 303 304 303 303 303 303 303 306 307 311 314 316 318 320
307 308 307 306 306 305 305 305 304 304 303 302 300 299 302 302 302 303 302 301 303 302 302 302 302 303 303 304 306 307 311 314 316
307 307 307 306 306 305 304 303 303 303 302 300 301 297 296 297 301 301 301 301 301 301 301 301 301 301 302 303 303 305 308 311 314
306 305 305 305 304 304 303 303 303 302 301 300 300 300 299 295 294 299 299 300 299 300 300 300 300 301 301 302 304 305 307 308 311
304 304 304 303 303 303 302 302 301 302 301 300 299 298 298 297 294 292 295 297 298 299 299 299 300 300 301 301 302 305 306 308 310

GFSFLT1_sfc_thetae_090.txt.gz
Theta_e
346 346 346 344 346 345 341 340 343 347 351 351 350 348 346 349 343 343 343 345 350 349 346 347 348 351 352 352 353 352 352 352 353
347 345 342 344 343 340 338 338 343 346 347 349 348 345 344 340 340 342 343 342 343 346 349 346 346 348 350 351 351 351 351 351 351
342 340 339 339 339 337 336 335 338 343 344 346 344 342 344 340 340 342 340 343 341 343 343 348 345 345 347 349 350 350 351 351 351
338 337 336 335 335 334 333 332 332 333 334 334 335 337 339 337 337 334 334 340 335 336 340 343 348 347 345 347 349 348 351 350 351
336 334 333 332 330 328 327 328 328 327 326 325 323 324 329 327 330 330 329 334 334 333 333 338 342 347 348 346 346 349 347 349 350
333 331 330 329 327 325 324 322 319 319 320 320 318 323 317 319 321 325 328 330 333 331 329 331 335 340 344 347 344 346 346 346 348
328 329 327 326 324 321 319 317 316 319 312 312 319 313 314 314 314 319 323 326 328 331 327 328 329 332 336 341 345 346 345 345 345
321 318 316 315 314 313 313 313 312 312 312 311 311 311 311 311 312 316 321 323 325 326 330 327 327 328 330 336 338 341 344 345 346
313 313 314 314 314 313 313 313 313 312 311 311 311 311 310 310 311 316 322 323 323 324 325 328 325 325 328 329 331 333 334 339 343
313 313 313 313 314 313 313 312 312 312 311 311 310 310 310 310 311 312 321 325 326 329 329 324 325 323 325 326 328 328 331 333 337
313 312 313 313 313 313 312 312 312 311 311 311 310 310 310 310 310 311 312 315 320 323 327 330 330 327 326 326 326 326 328 328 334
313 312 312 312 313 312 313 312 313 312 312 311 311 310 309 309 309 310 311 311 312 317 319 322 325 326 327 328 329 328 327 327 326
313 313 313 313 314 314 314 314 313 313 312 311 311 310 310 309 308 309 310 310 310 310 312 313 316 319 322 323 324 325 326 327 327
313 313 314 314 313 314 314 314 313 312 312 310 311 311 310 309 308 308 309 309 310 309 307 308 308 312 315 317 320 321 322 323 325
313 314 313 313 313 313 313 312 313 311 310 308 309 310 310 310 309 309 308 309 310 309 309 309 307 305 308 309 313 316 318 320 321
314 314 313 313 313 313 312 312 310 311 311 309 309 310 309 308 307 309 309 308 308 307 307 307 307 306 306 306 308 311 313 316 318
313 313 313 313 312 312 311 311 310 309 309 306 306 304 306 307 306 307 307 306 307 306 306 306 305 306 306 307 307 306 309 311 315
313 313 313 312 312 311 312 311 310 307 309 307 305 302 301 304 307 306 306 305 305 306 305 305 305 305 305 305 306 305 307 310 312
312 312 312 312 312 311 311 310 309 308 306 307 305 305 304 299 298 304 304 305 303 304 304 304 304 304 304 305 305 305 306 308 310
312 311 311 310 310 310 309 308 307 307 306 306 305 304 303 303 299 296 299 302 303 303 303 303 303 303 304 304 305 305 305 307 309

GFSFLT1_sfc_thetae_096.txt.gz
Theta_e
346 348 345 343 343 346 348 350 351 350 348 347 347 348 350 345 331 330 334 335 346 350 347 348 350 351 351 352 352 352 352 353 353
346 346 343 341 341 345 347 347 348 348 346 346 344 342 349 334 330 329 331 333 342 345 349 349 347 348 351 350 351 352 350 350 351
344 343 342 340 339 339 341 342 342 341 340 339 337 341 343 329 327 326 328 340 338 339 344 346 349 347 348 350 351 351 351 350 350
341 340 339 338 336 335 335 335 335 334 332 330 330 334 339 323 322 323 324 340 335 335 336 341 343 348 346 349 348 351 351 351 349
337 335 334 332 331 330 329 327 326 325 324 324 326 333 329 317 316 318 322 332 335 333 333 335 340 343 348 347 349 348 349 350 349
327 331 331 329 327 324 322 321 324 325 328 325 329 324 308 312 313 316 325 329 331 334 332 332 333 339 341 343 345 348 348 348 348
326 326 326 324 323 321 319 316 323 320 306 307 317 305 305 310 312 317 327 326 328 329 332 329 332 332 335 337 339 341 344 347 347
318 316 312 312 319 309 311 308 308 306 306 306 304 305 305 309 316 324 329 332 333 329 327 328 329 331 332 332 333 336 339 342 345
311 309 308 308 308 307 307 306 306 305 305 303 303 303 304 306 311 314 324 326 330 334 331 327 329 330 331 331 331 331 333 337 342
307 307 308 307 307 306 306 305 305 304 305 304 303 303 303 303 309 309 320 323 327 329 333 334 334 333 332 331 332 332 332 331 333
307 307 308 307 307 306 306 305 305 304 305 305 304 303 303 303 305 308 310 319 320 322 325 326 327 327 327 327 328 330 329 331 330
307 307 307 306 306 306 307 306 306 306 308 304 304 304 303 303 303 305 308 310 316 316 317 319 321 322 325 325 325 325 326 328 329
309 308 307 307 307 307 306 306 306 306 306 304 304 304 304 303 302 304 305 304 307 311 312 312 313 315 317 318 320 321 322 323 325
309 309 309 308 308 307 306 305 305 305 305 305 303 304 304 303 305 302 304 303 304 304 309 310 308 309 311 313 315 316 318 319 321
309 309 308 308 307 306 305 304 304 304 304 307 306 304 304 303 303 301 303 303 304 303 303 303 304 310 307 310 312 314 316 316 317
308 308 308 308 307 306 306 304 303 304 304 302 302 303 304 302 302 301 300 302 303 302 302 302 302 301 309 310 310 311 313 314 315
308 308 307 307 306 305 305 305 304 304 304 300 298 296 299 301 300 300 301 300 301 301 301 300 298 299 300 303 309 309 309 311 314
307 307 307 306 306 306 306 306 305 302 304 302 299 294 293 295 299 299 299 298 298 299 299 298 298 298 297 303 305 313 307 309 312
308 307 306 305 306 305 305 308 304 303 300 302 305 300 298 293 292 297 298 299 299 297 297 297 297 297 296 303 310 310 309 309 310
307 307 306 305 305 305 304 303 302 302 300 300 299 298 298 297 293 291 293 296 296 296 296 295 296 296 297 297 302 309 308 308 309

GFSFLT1_sfc_thetae_102.txt.gz
Theta_e
346 347 348 348 350 350 349 348 346 343 351 344 342 340 338 333 325 326 331 337 349 347 347 351 351 351 352 352 352 352 352 352 352
345 346 347 346 347 347 346 345 343 340 342 341 339 337 334 321 321 322 327 333 345 349 348 348 349 351 350 351 351 352 352 351 350
344 343 344 344 344 343 342 341 338 335 338 338 334 330 328 320 318 320 326 339 341 345 349 347 348 348 350 350 350 351 351 350 350
342 341 340 339 338 336 335 334 332 330 334 334 330 327 326 313 316 321 325 338 336 341 344 345 347 347 346 349 350 350 350 350 350
339 337 336 335 332 329 328 330 328 332 331 329 326 327 325 314 315 317 328 335 335 336 337 341 342 343 345 347 347 350 349 349 349
326 331 330 328 327 327 327 326 325 328 328 326 325 323 313 317 319 321 334 332 333 334 335 335 336 339 341 343 345 345 347 347 347
323 327 329 326 325 326 324 325 321 311 303 310 316 312 314 314 316 325 337 331 332 333 334 334 334 334 336 338 340 343 345 346 346
313 311 310 308 314 303 305 303 302 300 302 302 304 306 308 310 313 327 335 334 333 335 335 334 333 334 335 335 336 336 338 341 344
308 305 305 304 303 301 301 300 299 300 299 299 301 303 305 307 310 322 330 332 334 334 332 330 330 331 332 331 332 333 334 337 340
307 304 303 302 301 302 300 300 300 299 299 299 299 301 303 304 308 311 324 326 327 328 328 329 330 329 328 328 328 329 330 332 333
304 302 301 301 301 301 300 301 301 300 299 299 299 299 302 303 305 308 312 320 320 321 321 322 322 323 323 324 324 325 326 327 330
303 302 301 300 301 301 301 301 301 302 302 298 298 299 299 302 303 305 306 309 317 317 317 318 319 319 319 319 320 320 322 323 324
303 303 302 303 303 302 302 302 302 302 300 299 299 299 298 298 301 304 304 304 305 311 315 315 314 315 317 318 319 319 319 320 320
304 303 302 304 304 302 303 302 302 301 300 302 300 300 299 298 302 300 300 301 302 302 310 312 311 311 312 315 315 315 316 316 318
304 303 303 303 303 301 302 301 300 300 300 304 302 299 299 299 298 298 301 299 301 300 300 299 301 311 309 310 312 313 313 314 315
304 304 303 303 302 301 301 301 300 300 299 299 299 299 298 297 297 296 296 298 299 299 299 298 299 300 311 309 309 309 310 311 312
306 304 303 303 303 302 301 301 300 300 299 297 295 294 296 297 296 295 297 295 297 298 298 296 296 296 297 301 310 307 308 308 310
306 305 304 303 302 302 302 301 301 299 300 298 297 292 291 292 296 296 296 295 295 294 294 294 295 294 293 298 301 309 307 308 310
306 304 304 303 303 302 302 303 301 300 299 298 301 296 295 293 291 294 294 294 295 293 293 293 293 292 293 299 304 309 311 309 309
304 304 302 302 302 302 302 301 300 300 298 297 296 295 293 292 291 289 292 293 293 293 292 291 291 292 293 293 299 308 311 311 309

GFSFLT1_sfc_thetae_105.txt.gz
Theta_e
346 346 350 350 349 348 346 345 349 345 343 341 340 339 337 331 323 326 333 339 347 349 350 351 352 352 352 352 353 352 352 351 351
349 348 345 348 348 346 344 342 345 343 340 339 337 336 334 320 321 324 328 340 350 347 348 348 351 350 351 351 351 352 351 351 351
346 345 345 345 344 343 341 338 341 340 336 333 332 333 329 320 319 323 327 342 346 349 348 348 347 348 350 349 349 350 350 350 350
343 343 342 341 340 339 336 334 338 336 332 330 328 330 328 314 317 324 325 340 341 344 344 345 347 346 346 349 349 349 349 349 348
341 339 336 333 330 330 329 332 334 332 329 328 329 330 328 317 318 321 329 336 337 338 339 341 342 345 347 347 347 348 348 347 347
326 333 333 331 328 327 328 330 330 328 328 330 330 325 315 317 321 322 336 335 336 337 337 336 338 340 341 344 345 346 346 346 346
323 328 332 327 326 327 326 326 326 315 306 312 317 311 313 315 318 327 336 335 336 336 335 336 336 337 338 339 339 341 344 345 345
311 309 307 306 312 303 306 302 301 301 303 303 305 308 309 312 317 331 338 337 335 333 332 333 333 332 333 334 336 338 340 340 342
307 306 304 303 300 299 298 298 298 299 301 301 302 303 306 308 312 324 333 331 331 331 332 332 330 330 329 330 331 332 335 335 336
304 302 302 300 300 299 298 298 298 297 298 299 301 301 303 305 308 312 328 327 327 327 328 327 326 326 326 327 327 328 329 330 333
303 301 300 300 300 299 299 299 298 297 297 298 299 300 301 303 306 307 312 321 321 321 322 322 323 323 323 323 323 324 324 325 326
301 301 300 300 299 300 300 300 299 299 299 296 297 299 300 301 302 304 306 308 318 318 319 319 320 321 322 322 322 322 321 322 323
301 301 300 300 300 301 301 301 300 299 299 297 297 297 298 299 300 302 302 303 304 310 316 316 317 317 318 318 318 318 319 319 320
302 301 301 302 301 301 302 300 300 299 299 300 299 299 297 297 301 299 300 300 301 301 311 315 314 313 314 315 316 315 315 316 318
302 301 301 302 301 300 300 299 299 299 299 303 300 298 298 298 297 297 299 298 299 299 299 298 300 314 313 312 313 313 313 314 314
303 301 301 302 301 299 300 299 299 299 298 298 298 298 297 295 296 295 296 298 298 298 298 297 297 298 309 311 314 310 310 311 312
303 303 301 301 301 300 300 301 299 299 298 296 294 293 296 296 295 294 295 294 295 295 296 294 294 294 294 300 311 311 310 309 311
306 304 303 302 303 301 300 300 300 298 299 297 296 292 291 291 295 294 294 294 294 293 293 292 293 292 292 297 300 309 311 311 311
305 304 303 302 302 301 301 302 300 300 298 298 300 296 295 292 292 294 293 293 294 291 292 291 292 292 292 298 303 308 309 311 312
304 303 303 301 301 300 301 300 300 299 298 297 296 294 293 291 291 290 292 292 292 292 291 290 290 291 291 292 298 307 307 308 310

GFSFLT1_sfc_thetae_108.txt.gz
Theta_e
347 351 350 349 347 346 349 347 345 342 341 340 339 339 338 332 326 330 340 338 348 350 351 351 351 352 352 352 352 353 352 352 350
346 349 349 348 346 344 348 346 343 341 338 338 337 337 335 322 324 327 335 345 348 346 348 349 350 350 351 351 351 351 350 350 350
347 347 346 345 344 341 343 344 339 335 334 334 335 335 331 322 322 325 331 346 347 347 346 347 348 349 350 349 349 349 348 347 349
345 344 344 343 341 338 341 341 336 332 331 331 333 333 331 317 321 327 328 342 342 343 344 346 347 347 349 349 348 349 349 346 346
342 341 338 337 335 334 337 336 331 330 330 331 333 332 330 320 321 324 332 338 339 340 340 342 343 345 346 348 348 347 348 348 345
328 335 335 331 331 332 334 332 330 331 332 333 331 325 316 320 322 324 338 337 338 338 338 339 340 341 342 343 345 345 345 346 346
324 331 335 330 329 330 332 329 326 316 308 314 319 314 316 319 323 328 339 335 335 336 336 334 335 336 337 339 341 342 341 343 344
311 308 307 307 319 307 307 303 302 302 305 306 308 311 312 315 320 333 335 333 335 335 333 332 331 332 333 334 336 337 339 339 339
305 303 300 299 299 297 298 298 299 301 301 301 304 306 308 311 314 326 333 331 332 331 330 329 328 328 329 329 330 331 332 334 336
303 301 300 298 298 297 296 297 297 298 299 300 302 303 305 306 309 313 329 326 326 326 326 326 327 326 326 327 327 327 327 328 329
302 300 299 298 298 298 297 297 296 296 297 298 300 300 301 304 306 307 313 323 322 323 324 324 325 326 325 324 324 324 324 325 325
301 300 299 298 298 299 299 297 297 297 297 295 297 300 300 301 302 304 305 308 321 320 320 321 322 322 322 321 321 321 321 322 324
301 300 299 298 299 300 300 299 298 298 297 296 296 296 298 299 300 302 302 302 302 309 317 317 318 318 319 319 318 318 318 319 320
301 300 299 300 300 300 301 299 299 298 297 298 297 297 296 297 301 299 300 302 301 301 311 314 316 317 316 316 316 316 316 316 316
302 301 300 300 300 299 299 298 298 298 298 301 299 296 296 297 296 297 299 299 300 299 299 299 301 313 318 317 316 315 314 314 314
302 302 301 301 300 299 299 298 298 298 297 298 297 296 295 295 296 295 296 297 297 297 297 297 296 297 308 310 314 314 313 312 313
303 303 302 303 301 299 299 299 298 298 297 296 294 293 296 296 295 294 295 294 295 295 294 293 293 294 295 304 309 310 312 314 313
305 304 304 302 302 300 300 301 301 298 298 296 296 291 291 291 294 293 293 293 292 292 293 292 293 293 293 298 300 308 309 311 313
305 304 303 302 302 300 300 301 299 299 297 297 298 294 294 292 292 294 293 292 293 292 292 292 293 292 293 298 303 307 308 309 311
305 304 302 301 301 300 301 300 299 299 298 296 295 293 292 291 292 291 292 292 292 292 292 291 291 292 292 292 297 306 306 306 307

GFSFLT1_sfc_thetae_114.txt.gz
Theta_e
351 350 348 351 349 347 345 343 342 341 341 342 344 344 346 350 345 344 348 349 352 353 352 352 352 352 351 352 352 353 351 352 352
351 349 347 350 348 346 344 342 340 339 339 339 340 342 346 345 343 343 345 347 351 351 351 351 351 351 350 351 351 349 350 351 351
350 349 349 349 348 345 341 339 338 338 337 337 339 338 344 342 340 341 343 348 348 349 349 350 350 349 350 350 348 348 348 348 349
349 347 345 348 345 342 338 336 336 336 337 337 337 337 342 336 337 336 341 346 346 347 346 347 348 349 349 349 349 347 347 347 346
346 346 343 345 344 339 335 333 334 335 335 336 335 337 340 334 335 336 337 340 341 343 344 344 345 346 346 346 347 348 348 346 344
344 345 344 343 341 336 334 333 334 334 335 334 332 339 332 332 332 334 339 337 338 338 338 339 341 343 343 344 344 345 345 346 345
337 340 341 341 337 333 334 334 332 333 327 329 332 333 331 331 332 333 337 335 335 335 334 335 335 336 337 338 340 342 343 343 343
332 332 333 336 334 327 326 326 325 328 328 328 331 331 329 330 331 333 335 332 333 333 332 332 332 332 332 332 333 334 337 339 340
329 328 329 331 326 316 316 319 324 326 326 327 327 326 327 327 327 329 333 331 331 332 331 330 329 329 330 330 330 331 331 332 333
328 326 324 323 316 315 315 316 317 318 320 323 323 321 322 323 323 324 332 330 330 330 330 329 329 328 327 327 328 328 327 328 328
324 322 319 316 315 315 315 315 315 315 315 316 317 318 319 320 321 322 325 329 328 327 327 327 327 326 325 325 325 324 325 325 326
321 318 315 314 315 314 315 314 315 315 315 314 315 315 315 316 318 320 320 321 326 324 323 324 324 324 323 323 322 322 322 322 323
317 315 314 314 314 314 314 314 314 314 314 314 314 314 314 314 315 315 316 317 318 319 321 321 321 321 321 321 320 320 320 320 320
315 314 314 314 314 314 314 314 314 313 313 313 314 315 315 314 313 314 315 315 316 315 314 316 318 320 320 319 319 318 317 317 317
315 315 314 314 314 314 315 314 315 314 313 311 312 314 315 315 315 313 313 314 315 316 316 316 314 316 316 317 318 317 317 317 317
311 314 313 315 315 315 315 315 314 313 314 312 312 312 314 313 313 313 313 313 314 314 314 314 314 312 313 314 314 315 315 315 315
312 313 313 315 315 316 315 315 313 314 314 311 311 307 308 310 311 312 311 311 311 310 310 311 311 312 311 309 308 309 311 313 314
307 309 311 314 315 314 315 315 315 311 312 312 310 305 303 308 310 310 310 310 310 310 310 310 310 310 310 308 308 308 309 310 311
311 310 308 309 311 311 313 313 314 313 310 311 311 311 311 306 305 309 309 309 308 309 309 308 308 308 308 305 303 305 306 307 309
313 312 311 308 309 310 311 311 312 314 312 311 311 310 310 310 307 305 307 307 307 308 308 308 307 307 307 306 304 303 305 306 307

GFSFLT1_sfc_thetae_117.txt.gz
Theta_e
351 350 352 349 347 345 343 342 342 342 344 345 346 349 351 347 345 347 350 350 352 353 352 352 353 353 353 353 354 355 352 353 354
350 348 351 349 346 345 342 341 340 340 341 343 343 347 349 341 341 344 347 348 351 352 352 351 351 351 352 353 352 350 351 351 352
350 349 349 348 345 342 341 340 339 338 339 340 340 342 347 339 340 342 345 348 349 350 351 350 350 350 350 350 349 347 348 348 350
349 349 348 347 343 340 338 338 338 337 338 338 338 343 344 334 339 337 340 346 346 348 349 348 348 348 349 349 349 346 346 346 346
348 348 347 345 341 337 335 336 336 336 336 336 336 341 342 334 335 334 336 341 342 344 345 345 345 346 347 347 348 348 348 346 346
344 345 346 341 338 336 334 335 335 335 333 331 333 338 331 332 332 332 339 338 339 339 339 340 341 343 344 345 345 345 345 345 344
341 341 345 339 336 334 335 334 334 333 327 330 333 329 331 330 330 331 337 335 336 336 335 335 335 336 337 338 340 341 341 342 343
336 334 338 334 334 328 327 329 327 326 327 330 328 328 329 329 328 332 335 333 334 334 333 332 332 333 333 333 333 334 335 337 339
331 330 333 331 324 319 320 323 326 326 326 326 325 326 327 325 326 330 335 333 333 332 332 331 331 330 331 330 330 330 331 331 332
328 327 329 327 318 316 317 321 322 323 324 323 321 323 323 323 324 326 334 333 331 331 330 330 329 329 328 328 328 328 328 328 329
327 326 322 320 315 316 316 316 317 317 318 318 319 319 320 321 322 323 326 331 330 328 328 328 328 327 326 326 325 325 325 326 326
325 322 317 315 315 315 316 315 316 315 315 315 316 316 317 319 320 320 321 322 327 326 325 325 325 325 324 324 323 323 323 323 323
322 319 315 315 315 316 315 315 315 315 314 314 314 314 315 315 316 318 318 320 318 321 323 323 323 323 322 322 321 321 320 320 321
318 316 316 315 316 315 315 315 314 313 314 314 314 314 314 314 314 314 316 316 319 316 316 319 320 319 320 321 320 319 319 319 319
316 317 316 315 316 316 317 314 315 314 313 310 312 313 315 315 314 314 314 315 317 317 318 318 315 317 318 318 318 318 318 317 317
317 317 315 317 316 316 317 315 314 314 314 312 312 312 313 313 314 314 313 315 314 315 316 316 315 313 315 313 314 315 316 316 316
315 315 315 313 317 317 316 318 315 315 315 311 312 307 309 311 312 313 313 312 314 312 312 311 312 315 313 310 309 310 312 313 313
313 314 313 315 318 318 319 318 320 315 316 313 312 307 305 309 311 310 311 311 312 312 311 310 310 310 312 310 310 307 307 308 309
310 310 309 309 310 312 316 315 317 316 312 313 311 311 311 307 307 310 310 311 310 311 312 310 309 309 311 308 306 304 305 306 307
311 310 309 308 309 308 309 310 312 314 313 314 314 312 311 309 306 305 307 310 310 310 311 309 310 310 310 310 308 303 303 304 305

GFSFLT1_sfc_thetae_120.txt.gz
Theta_e
352 351 350 347 345 344 343 343 344 346 347 351 351 352 348 347 342 342 346 345 352 353 352 353 354 354 353 354 355 354 353 353 354
351 350 349 347 345 343 341 340 342 344 344 344 345 350 349 338 339 340 342 345 351 352 352 351 351 352 351 351 351 350 351 352 353
350 350 349 346 343 342 340 339 339 341 342 342 345 349 345 338 336 338 340 348 350 351 351 350 350 350 350 350 349 347 348 349 350
350 349 347 344 341 340 339 338 337 337 340 341 346 346 342 331 332 335 337 347 347 348 348 348 349 349 348 348 348 346 347 346 347
349 348 345 342 339 338 337 337 336 335 337 338 338 343 338 329 330 332 335 342 344 344 344 345 346 347 347 348 347 347 345 344 344
342 347 344 340 338 337 336 335 334 334 332 333 335 337 327 328 328 329 338 338 339 339 338 339 340 341 342 343 344 344 345 345 344
340 343 341 338 336 335 333 333 334 334 324 325 334 326 325 325 326 329 337 335 336 336 335 335 335 336 336 336 337 339 340 341 342
335 336 330 327 332 324 328 328 326 318 321 322 322 324 323 323 324 331 337 334 334 334 334 333 333 333 333 333 333 333 333 335 337
328 328 329 324 320 317 317 319 319 319 321 318 319 321 321 322 322 330 336 333 333 333 332 332 331 331 330 331 331 331 331 331 332
325 324 326 320 311 309 313 316 316 315 315 314 316 317 318 319 320 323 334 334 331 331 331 331 330 329 328 328 328 328 328 328 328
320 320 319 310 309 310 311 311 310 311 311 311 312 313 317 318 317 318 323 333 331 329 329 328 328 328 327 326 326 326 325 326 326
319 316 312 309 308 308 308 308 308 308 309 307 308 310 312 315 316 316 315 318 328 327 326 326 326 325 325 325 324 323 323 323 323
317 313 310 309 309 309 308 308 308 307 307 305 306 307 309 309 311 313 313 313 316 321 326 324 323 323 324 323 323 322 322 322 322
314 311 309 309 309 309 308 307 307 306 306 307 306 306 306 307 310 308 309 310 310 310 320 321 321 321 322 321 321 320 320 319 319
311 310 308 310 309 308 308 307 307 307 306 308 307 306 307 306 306 307 310 309 309 307 309 310 313 319 319 320 320 318 319 318 317
310 311 309 310 309 309 307 307 305 305 305 304 304 304 305 305 306 306 306 308 309 308 308 309 307 310 316 315 315 316 317 316 315
312 311 310 311 309 309 308 310 306 306 306 303 302 299 301 302 305 305 306 305 307 306 307 305 306 306 304 306 311 311 312 313 312
310 310 310 310 311 310 310 311 309 307 308 307 305 300 298 299 303 302 304 303 304 304 304 303 304 303 303 307 307 308 308 309 310
309 308 309 309 310 309 309 311 311 310 307 307 309 305 304 300 300 303 303 304 304 303 303 302 302 302 302 307 308 306 306 306 307
310 308 308 308 308 307 308 307 307 309 308 308 306 305 305 304 300 298 301 302 302 302 302 302 302 302 302 302 305 306 304 304 306

GFSFLT1_sfc_thetae_123.txt.gz
Theta_e
352 349 347 346 344 343 344 347 348 348 348 352 350 349 348 345 340 342 346 346 352 351 351 352 352 352 353 353 353 354 353 352 353
351 348 346 345 343 341 341 344 346 346 344 346 348 347 345 337 338 341 343 345 351 352 351 350 350 350 350 351 352 350 350 351 352
350 348 345 345 342 340 339 340 344 343 349 350 346 342 339 334 334 337 343 348 350 351 351 350 349 349 348 349 348 348 349 349 350
350 347 345 343 341 340 338 337 341 341 346 344 342 340 338 328 330 337 339 348 348 349 348 347 347 347 347 348 346 344 346 347 348
349 346 343 342 340 338 337 336 338 339 340 341 339 337 335 327 328 332 338 342 343 345 345 345 345 345 345 346 346 346 343 344 344
341 344 342 340 338 336 334 335 337 336 339 340 336 333 326 326 326 330 339 338 339 339 339 339 339 340 341 342 343 343 343 344 343
340 341 341 339 336 334 333 335 336 331 322 329 331 324 322 323 325 329 338 336 337 337 335 335 335 335 335 336 336 338 339 340 341
334 332 328 327 330 324 327 326 324 319 321 321 323 323 322 321 324 332 337 335 335 335 334 333 333 333 333 333 333 334 334 333 335
330 326 323 322 319 321 320 322 322 318 320 321 320 321 320 319 322 331 336 334 333 333 333 332 331 331 332 332 331 330 330 330 330
329 326 323 320 314 313 312 314 314 313 315 319 319 318 317 318 320 323 335 334 332 332 332 331 330 330 329 329 328 328 328 328 328
326 326 320 312 307 309 312 310 308 308 314 315 318 317 317 315 316 318 325 333 332 330 330 329 329 328 327 327 326 326 326 326 325
319 318 307 306 307 309 307 305 306 307 308 307 312 315 314 314 313 313 314 318 331 330 327 327 327 327 326 325 325 324 324 324 323
314 310 307 306 306 306 306 306 305 305 304 303 307 312 312 311 311 312 312 313 315 323 328 325 325 325 324 324 323 322 322 321 321
313 310 307 306 307 306 307 305 306 303 303 304 303 303 306 309 312 309 310 311 311 311 325 324 325 323 323 322 322 321 321 320 319
310 308 306 307 307 306 306 305 305 304 303 307 305 303 303 304 305 305 308 308 306 307 310 309 315 321 321 321 320 320 320 318 317
308 306 307 308 307 307 306 305 304 303 302 302 301 302 302 302 303 304 304 306 306 305 307 306 307 311 317 316 317 318 317 315 315
308 307 307 308 307 307 307 307 304 304 302 301 299 297 300 301 302 302 305 304 305 305 306 306 305 305 302 307 312 312 313 313 312
308 308 308 308 308 308 309 309 308 304 304 305 303 298 297 298 301 300 301 302 302 302 303 302 304 304 301 308 308 309 309 309 310
307 308 309 310 310 310 311 311 310 308 305 305 307 305 304 298 297 301 302 301 303 302 301 300 301 302 301 307 307 308 307 305 306
310 309 308 308 308 308 308 308 308 308 308 307 306 304 304 301 297 295 300 300 300 301 301 299 299 299 300 300 306 309 306 304 304

GFSFLT1_sfc_thetae_126.txt.gz
Theta_e
349 347 346 345 346 347 347 347 348 350 350 350 350 349 348 345 341 343 347 346 351 350 348 352 352 352 352 352 353 352 351 351 350
349 347 345 343 343 346 348 347 345 348 348 347 347 346 345 337 339 341 342 344 351 352 350 349 349 348 348 350 350 351 350 350 349
348 346 345 342 340 343 346 344 347 349 346 344 344 342 339 336 337 339 341 348 349 350 349 348 349 349 346 348 348 349 349 349 349
348 346 344 342 339 339 344 345 345 346 344 343 341 339 337 327 332 336 338 348 348 348 348 348 347 347 346 345 346 346 347 347 348
348 345 344 341 339 337 342 344 342 343 342 341 339 336 334 325 328 332 337 344 345 344 344 344 345 345 345 345 344 344 343 345 346
338 342 342 340 337 335 339 341 340 340 339 337 336 332 324 325 326 330 338 339 339 339 339 338 338 339 341 342 342 342 343 342 343
338 341 342 338 335 335 339 339 337 331 327 328 329 322 322 323 325 330 338 336 337 336 336 336 335 336 336 335 335 336 338 339 340
334 332 330 324 330 323 327 326 319 319 321 321 322 321 321 321 324 333 337 335 336 335 335 334 334 334 334 333 333 333 333 333 333
326 325 323 321 320 320 320 320 319 319 319 319 318 318 319 321 323 331 336 334 334 334 334 333 332 331 331 331 331 331 331 331 331
325 322 320 318 317 318 315 314 314 317 317 318 319 317 317 318 321 324 335 334 332 332 332 332 331 330 330 329 329 328 328 328 328
325 321 318 314 313 310 312 309 314 315 317 316 318 316 315 316 318 320 326 334 332 331 330 330 330 329 328 328 327 326 326 326 325
324 321 315 311 307 310 305 305 311 312 316 312 314 315 313 313 313 314 315 320 332 331 328 328 328 327 327 326 325 324 324 323 323
322 317 310 306 306 306 305 305 306 307 311 311 312 312 312 311 311 312 312 313 314 325 330 327 326 326 325 325 324 323 322 322 321
319 310 305 305 305 305 306 304 306 305 304 308 307 309 309 309 311 309 310 313 312 313 326 328 326 324 324 323 323 322 321 320 319
312 306 305 305 305 304 304 304 303 304 303 308 305 304 306 306 307 307 309 307 308 309 310 309 316 323 322 321 321 321 319 318 317
308 305 305 306 305 304 304 303 303 302 302 302 300 301 300 301 302 303 305 304 303 307 306 307 307 312 318 318 318 318 317 316 316
307 306 305 305 305 304 305 305 303 303 303 301 299 297 299 299 301 301 303 303 304 304 306 305 306 304 303 308 314 313 313 314 314
306 306 306 305 305 305 305 306 305 305 305 304 302 296 297 299 299 299 301 301 302 303 303 305 305 302 301 308 309 310 309 309 310
307 307 306 306 306 307 307 309 307 308 304 305 306 304 304 300 299 302 299 300 302 301 301 301 303 302 301 307 308 310 308 306 307
310 308 307 307 308 308 309 309 309 308 307 306 305 304 303 302 299 297 299 299 299 300 299 299 299 300 300 303 306 311 309 306 305